Time,TemperatureF,DewpointF,PressureIn,WindDirection,WindDirectionDegrees,WindSpeedMPH,WindSpeedGustMPH,Humidity,HourlyPrecipIn,Conditions,Clouds,dailyrainin,SoftwareType,DateUTC
2013-04-09 00:05:00,52.6,41.2,30.06,West,272,7.0,9.0,65,0.00,,,0.00,Wunderground v.1.15,2013-04-09 07:05:00,
2013-04-09 00:08:00,52.6,41.6,30.06,West,277,6.0,9.0,66,0.00,,,0.00,Wunderground v.1.15,2013-04-09 07:08:00,
2013-04-09 00:10:00,52.5,41.5,30.06,West,278,6.0,6.0,66,0.00,,,0.00,Wunderground v.1.15,2013-04-09 07:10:00,
2013-04-09 00:15:00,52.5,41.5,30.06,West,273,5.0,6.0,66,0.00,,,0.00,Wunderground v.1.15,2013-04-09 07:15:00,
2013-04-09 00:16:00,52.5,41.5,30.06,West,272,6.0,6.0,66,0.00,,,0.00,Wunderground v.1.15,2013-04-09 07:16:00,
2013-04-09 00:17:00,52.5,41.5,30.06,West,272,3.0,6.0,66,0.00,,,0.00,Wunderground v.1.15,2013-04-09 07:17:00,
2013-04-09 00:19:00,52.3,41.3,30.06,West,279,4.0,6.0,66,0.00,,,0.00,Wunderground v.1.15,2013-04-09 07:19:00,
2013-04-09 00:24:00,51.8,41.2,30.07,WNW,301,4.0,7.0,67,0.00,,,0.00,Wunderground v.1.15,2013-04-09 07:24:00,
2013-04-09 00:29:00,51.6,41.4,30.07,WNW,293,3.0,7.0,68,0.00,,,0.00,Wunderground v.1.15,2013-04-09 07:29:00,
2013-04-09 00:30:00,51.5,41.3,30.07,WNW,292,4.0,5.0,68,0.00,,,0.00,Wunderground v.1.15,2013-04-09 07:30:00,
2013-04-09 00:33:00,51.4,41.2,30.07,WNW,296,3.0,5.0,68,0.00,,,0.00,Wunderground v.1.15,2013-04-09 07:33:00,
2013-04-09 00:35:00,51.6,41.0,30.07,WNW,289,6.0,6.0,67,0.00,,,0.00,Wunderground v.1.15,2013-04-09 07:35:00,
2013-04-09 00:37:00,51.7,41.1,30.07,WNW,289,3.0,6.0,67,0.00,,,0.00,Wunderground v.1.15,2013-04-09 07:37:00,
2013-04-09 00:38:00,51.7,41.1,30.07,WNW,289,6.0,6.0,67,0.00,,,0.00,Wunderground v.1.15,2013-04-09 07:38:00,
2013-04-09 00:40:00,51.5,40.9,30.07,West,277,5.0,5.0,67,0.00,,,0.00,Wunderground v.1.15,2013-04-09 07:40:00,
2013-04-09 00:42:00,51.4,41.2,30.07,West,278,5.0,6.0,68,0.00,,,0.00,Wunderground v.1.15,2013-04-09 07:42:00,
2013-04-09 00:43:00,51.3,41.1,30.07,West,270,6.0,6.0,68,0.00,,,0.00,Wunderground v.1.15,2013-04-09 07:43:00,
2013-04-09 00:48:00,50.9,41.1,30.08,West,278,7.0,7.0,69,0.00,,,0.00,Wunderground v.1.15,2013-04-09 07:48:00,
2013-04-09 00:49:00,50.8,41.4,30.08,West,278,5.0,7.0,70,0.00,,,0.00,Wunderground v.1.15,2013-04-09 07:49:00,
2013-04-09 00:52:00,50.6,41.2,30.08,West,280,5.0,7.0,70,0.00,,,0.00,Wunderground v.1.15,2013-04-09 07:52:00,
2013-04-09 00:55:00,50.7,41.3,30.08,West,272,6.0,7.0,70,0.00,,,0.00,Wunderground v.1.15,2013-04-09 07:55:00,
2013-04-09 00:58:00,50.8,41.4,30.08,West,278,3.0,7.0,70,0.00,,,0.00,Wunderground v.1.15,2013-04-09 07:58:00,
2013-04-09 01:03:00,50.8,41.0,30.08,WNW,297,3.0,4.0,69,0.00,,,0.00,Wunderground v.1.15,2013-04-09 08:03:00,
2013-04-09 01:06:00,50.9,41.1,30.08,WNW,297,4.0,4.0,69,0.00,,,0.00,Wunderground v.1.15,2013-04-09 08:06:00,
2013-04-09 01:07:00,50.9,41.1,30.08,WNW,297,1.0,4.0,69,0.00,,,0.00,Wunderground v.1.15,2013-04-09 08:07:00,
2013-04-09 01:11:00,51.1,40.9,30.08,WNW,297,0.0,3.0,68,0.00,,,0.00,Wunderground v.1.15,2013-04-09 08:11:00,
2013-04-09 01:13:00,51.1,40.9,30.08,WNW,297,1.0,3.0,68,0.00,,,0.00,Wunderground v.1.15,2013-04-09 08:13:00,
2013-04-09 01:14:00,51.2,40.6,30.08,WNW,297,0.0,3.0,67,0.00,,,0.00,Wunderground v.1.15,2013-04-09 08:14:00,
2013-04-09 01:18:00,51.3,40.3,30.08,WNW,297,3.0,3.0,66,0.00,,,0.00,Wunderground v.1.15,2013-04-09 08:18:00,
2013-04-09 01:19:00,51.3,40.3,30.08,WNW,297,3.0,3.0,66,0.00,,,0.00,Wunderground v.1.15,2013-04-09 08:19:00,
2013-04-09 01:25:00,51.8,40.0,30.08,WNW,297,3.0,4.0,64,0.00,,,0.00,Wunderground v.1.15,2013-04-09 08:25:00,
2013-04-09 01:26:00,51.8,40.0,30.08,WNW,297,1.0,4.0,64,0.00,,,0.00,Wunderground v.1.15,2013-04-09 08:26:00,
2013-04-09 01:27:00,51.8,40.0,30.08,WNW,297,2.0,4.0,64,0.00,,,0.00,Wunderground v.1.15,2013-04-09 08:27:00,
2013-04-09 01:33:00,51.7,39.9,30.08,WNW,297,2.0,2.0,64,0.00,,,0.00,Wunderground v.1.15,2013-04-09 08:33:00,
2013-04-09 01:34:00,51.7,39.9,30.08,WNW,297,2.0,2.0,64,0.00,,,0.00,Wunderground v.1.15,2013-04-09 08:34:00,
2013-04-09 01:35:00,51.7,39.9,30.08,WNW,297,3.0,3.0,64,0.00,,,0.00,Wunderground v.1.15,2013-04-09 08:35:00,
2013-04-09 01:36:00,51.6,39.8,30.08,WNW,297,0.0,3.0,64,0.00,,,0.00,Wunderground v.1.15,2013-04-09 08:36:00,
2013-04-09 01:38:00,51.6,39.8,30.08,WNW,297,2.0,3.0,64,0.00,,,0.00,Wunderground v.1.15,2013-04-09 08:38:00,
2013-04-09 01:39:00,51.5,39.7,30.08,WNW,297,0.0,3.0,64,0.00,,,0.00,Wunderground v.1.15,2013-04-09 08:39:00,
2013-04-09 01:42:00,51.4,39.6,30.08,WNW,297,3.0,3.0,64,0.00,,,0.00,Wunderground v.1.15,2013-04-09 08:42:00,
2013-04-09 01:43:00,51.4,39.6,30.08,WNW,297,1.0,3.0,64,0.00,,,0.00,Wunderground v.1.15,2013-04-09 08:43:00,
2013-04-09 01:47:00,51.4,39.6,30.08,WNW,297,1.0,3.0,64,0.00,,,0.00,Wunderground v.1.15,2013-04-09 08:47:00,
2013-04-09 01:49:00,51.3,39.5,30.08,WNW,298,3.0,4.0,64,0.00,,,0.00,Wunderground v.1.15,2013-04-09 08:49:00,
2013-04-09 01:52:00,51.2,39.4,30.08,WNW,297,3.0,3.0,64,0.00,,,0.00,Wunderground v.1.15,2013-04-09 08:52:00,
2013-04-09 01:54:00,51.0,39.6,30.08,WNW,297,0.0,3.0,65,0.00,,,0.00,Wunderground v.1.15,2013-04-09 08:54:00,
2013-04-09 01:55:00,50.8,39.5,30.08,WNW,297,0.0,3.0,65,0.00,,,0.00,Wunderground v.1.15,2013-04-09 08:55:00,
2013-04-09 01:57:00,50.5,39.6,30.08,WNW,297,1.0,3.0,66,0.00,,,0.00,Wunderground v.1.15,2013-04-09 08:57:00,
2013-04-09 01:58:00,50.3,39.4,30.08,WNW,297,2.0,3.0,66,0.00,,,0.00,Wunderground v.1.15,2013-04-09 08:58:00,
2013-04-09 02:00:00,50.3,39.4,30.08,WNW,297,1.0,1.0,66,0.00,,,0.00,Wunderground v.1.15,2013-04-09 09:00:00,
2013-04-09 02:01:00,50.4,39.5,30.08,WNW,298,0.0,1.0,66,0.00,,,0.00,Wunderground v.1.15,2013-04-09 09:01:00,
2013-04-09 02:02:00,50.5,39.6,30.08,WNW,297,2.0,2.0,66,0.00,,,0.00,Wunderground v.1.15,2013-04-09 09:02:00,
2013-04-09 02:03:00,50.5,39.6,30.08,WNW,297,1.0,2.0,66,0.00,,,0.00,Wunderground v.1.15,2013-04-09 09:03:00,
2013-04-09 02:05:00,50.6,39.3,30.08,WNW,297,1.0,3.0,65,0.00,,,0.00,Wunderground v.1.15,2013-04-09 09:05:00,
2013-04-09 02:07:00,50.5,39.6,30.08,WNW,297,1.0,3.0,66,0.00,,,0.00,Wunderground v.1.15,2013-04-09 09:07:00,
2013-04-09 02:08:00,50.5,39.6,30.08,WNW,297,1.0,3.0,66,0.00,,,0.00,Wunderground v.1.15,2013-04-09 09:08:00,
2013-04-09 02:10:00,50.4,39.5,30.08,WNW,298,2.0,3.0,66,0.00,,,0.00,Wunderground v.1.15,2013-04-09 09:10:00,
2013-04-09 02:12:00,50.5,39.6,30.08,WNW,297,0.0,3.0,66,0.00,,,0.00,Wunderground v.1.15,2013-04-09 09:12:00,
2013-04-09 02:13:00,50.5,39.6,30.08,WNW,297,1.0,3.0,66,0.00,,,0.00,Wunderground v.1.15,2013-04-09 09:13:00,
2013-04-09 02:16:00,50.5,39.2,30.08,WNW,297,0.0,3.0,65,0.00,,,0.00,Wunderground v.1.15,2013-04-09 09:16:00,
2013-04-09 02:17:00,50.5,39.2,30.08,WNW,297,0.0,3.0,65,0.00,,,0.00,Wunderground v.1.15,2013-04-09 09:17:00,
2013-04-09 02:18:00,50.5,39.6,30.08,WNW,297,0.0,3.0,66,0.00,,,0.00,Wunderground v.1.15,2013-04-09 09:18:00,
2013-04-09 02:21:00,50.3,39.4,30.08,WNW,298,1.0,1.0,66,0.00,,,0.00,Wunderground v.1.15,2013-04-09 09:21:00,
2013-04-09 02:22:00,50.3,39.0,30.08,WNW,297,1.0,2.0,65,0.00,,,0.00,Wunderground v.1.15,2013-04-09 09:22:00,
2013-04-09 02:23:00,50.4,39.1,30.08,WNW,297,2.0,2.0,65,0.00,,,0.00,Wunderground v.1.15,2013-04-09 09:23:00,
2013-04-09 02:27:00,50.6,39.3,30.08,WNW,297,4.0,5.0,65,0.00,,,0.00,Wunderground v.1.15,2013-04-09 09:27:00,
2013-04-09 02:28:00,50.7,39.4,30.08,WNW,297,3.0,5.0,65,0.00,,,0.00,Wunderground v.1.15,2013-04-09 09:28:00,
2013-04-09 02:29:00,50.8,39.1,30.08,WNW,297,3.0,5.0,64,0.00,,,0.00,Wunderground v.1.15,2013-04-09 09:29:00,
2013-04-09 02:32:00,50.8,39.5,30.08,WNW,297,2.0,4.0,65,0.00,,,0.00,Wunderground v.1.15,2013-04-09 09:32:00,
2013-04-09 02:33:00,50.6,39.3,30.08,WNW,297,3.0,4.0,65,0.00,,,0.00,Wunderground v.1.15,2013-04-09 09:33:00,
2013-04-09 02:34:00,50.5,39.2,30.08,WNW,296,4.0,6.0,65,0.00,,,0.00,Wunderground v.1.15,2013-04-09 09:34:00,
2013-04-09 02:37:00,50.2,39.3,30.08,WNW,298,5.0,6.0,66,0.00,,,0.00,Wunderground v.1.15,2013-04-09 09:37:00,
2013-04-09 02:38:00,50.0,39.1,30.08,WNW,298,2.0,6.0,66,0.00,,,0.00,Wunderground v.1.15,2013-04-09 09:38:00,
2013-04-09 02:39:00,49.9,39.0,30.08,WNW,298,1.0,6.0,66,0.00,,,0.00,Wunderground v.1.15,2013-04-09 09:39:00,
2013-04-09 02:42:00,49.5,39.0,30.08,WNW,298,3.0,5.0,67,0.00,,,0.00,Wunderground v.1.15,2013-04-09 09:42:00,
2013-04-09 02:43:00,49.4,38.9,30.08,WNW,298,3.0,5.0,67,0.00,,,0.00,Wunderground v.1.15,2013-04-09 09:43:00,
2013-04-09 02:44:00,49.3,38.8,30.08,WNW,298,4.0,5.0,67,0.00,,,0.00,Wunderground v.1.15,2013-04-09 09:44:00,
2013-04-09 02:45:00,49.3,38.8,30.08,WNW,298,2.0,5.0,67,0.00,,,0.00,Wunderground v.1.15,2013-04-09 09:45:00,
2013-04-09 02:47:00,49.1,39.0,30.08,WNW,298,2.0,5.0,68,0.00,,,0.00,Wunderground v.1.15,2013-04-09 09:47:00,
2013-04-09 02:49:00,48.8,38.7,30.08,NW,310,4.0,6.0,68,0.00,,,0.00,Wunderground v.1.15,2013-04-09 09:49:00,
2013-04-09 02:50:00,48.7,38.6,30.08,NW,310,1.0,3.0,68,0.00,,,0.00,Wunderground v.1.15,2013-04-09 09:50:00,
2013-04-09 02:53:00,48.5,38.8,30.08,NW,310,5.0,5.0,69,0.00,,,0.00,Wunderground v.1.15,2013-04-09 09:53:00,
2013-04-09 02:55:00,48.6,38.5,30.08,NW,310,4.0,5.0,68,0.00,,,0.00,Wunderground v.1.15,2013-04-09 09:55:00,
2013-04-09 02:56:00,48.6,38.5,30.08,NW,310,3.0,5.0,68,0.00,,,0.00,Wunderground v.1.15,2013-04-09 09:56:00,
2013-04-09 02:58:00,48.6,38.9,30.08,NW,310,4.0,5.0,69,0.00,,,0.00,Wunderground v.1.15,2013-04-09 09:58:00,
2013-04-09 03:00:00,48.4,38.7,30.09,NW,310,3.0,3.0,69,0.00,,,0.00,Wunderground v.1.15,2013-04-09 10:00:00,
2013-04-09 03:01:00,48.3,38.6,30.09,NW,310,3.0,4.0,69,0.00,,,0.00,Wunderground v.1.15,2013-04-09 10:01:00,
2013-04-09 03:03:00,48.2,38.5,30.09,NW,310,3.0,4.0,69,0.00,,,0.00,Wunderground v.1.15,2013-04-09 10:03:00,
2013-04-09 03:05:00,47.9,38.6,30.09,NW,310,2.0,4.0,70,0.00,,,0.00,Wunderground v.1.15,2013-04-09 10:05:00,
2013-04-09 03:06:00,47.8,38.5,30.08,NW,310,3.0,4.0,70,0.00,,,0.00,Wunderground v.1.15,2013-04-09 10:06:00,
2013-04-09 03:08:00,47.8,38.5,30.08,NW,310,1.0,4.0,70,0.00,,,0.00,Wunderground v.1.15,2013-04-09 10:08:00,
2013-04-09 03:10:00,47.8,38.5,30.08,NW,310,0.0,3.0,70,0.00,,,0.00,Wunderground v.1.15,2013-04-09 10:10:00,
2013-04-09 03:12:00,47.8,38.5,30.08,NW,310,0.0,3.0,70,0.00,,,0.00,Wunderground v.1.15,2013-04-09 10:12:00,
2013-04-09 03:13:00,47.8,38.5,30.08,NW,310,2.0,3.0,70,0.00,,,0.00,Wunderground v.1.15,2013-04-09 10:13:00,
2013-04-09 03:15:00,47.7,38.4,30.08,NW,310,2.0,3.0,70,0.00,,,0.00,Wunderground v.1.15,2013-04-09 10:15:00,
2013-04-09 03:16:00,47.8,38.5,30.08,NW,310,1.0,3.0,70,0.00,,,0.00,Wunderground v.1.15,2013-04-09 10:16:00,
2013-04-09 03:19:00,48.0,38.7,30.08,NW,310,0.0,3.0,70,0.00,,,0.00,Wunderground v.1.15,2013-04-09 10:19:00,
2013-04-09 03:20:00,47.9,38.6,30.08,NW,310,0.0,1.0,70,0.00,,,0.00,Wunderground v.1.15,2013-04-09 10:20:00,
2013-04-09 03:23:00,47.9,38.2,30.08,NW,310,1.0,3.0,69,0.00,,,0.00,Wunderground v.1.15,2013-04-09 10:23:00,
2013-04-09 03:24:00,48.1,38.4,30.08,NW,310,0.0,3.0,69,0.00,,,0.00,Wunderground v.1.15,2013-04-09 10:24:00,
2013-04-09 03:25:00,48.3,38.6,30.08,NW,310,0.0,3.0,69,0.00,,,0.00,Wunderground v.1.15,2013-04-09 10:25:00,
2013-04-09 03:26:00,48.3,38.6,30.08,NW,310,1.0,3.0,69,0.00,,,0.00,Wunderground v.1.15,2013-04-09 10:26:00,
2013-04-09 03:28:00,48.4,38.7,30.08,NW,310,3.0,3.0,69,0.00,,,0.00,Wunderground v.1.15,2013-04-09 10:28:00,
2013-04-09 03:30:00,48.5,38.4,30.08,NW,310,2.0,2.0,68,0.00,,,0.00,Wunderground v.1.15,2013-04-09 10:30:00,
2013-04-09 03:32:00,48.5,38.4,30.08,NW,310,2.0,2.0,68,0.00,,,0.00,Wunderground v.1.15,2013-04-09 10:32:00,
2013-04-09 03:33:00,48.6,38.5,30.08,NW,310,1.0,3.0,68,0.00,,,0.00,Wunderground v.1.15,2013-04-09 10:33:00,
2013-04-09 03:35:00,48.6,38.5,30.08,NW,310,2.0,3.0,68,0.00,,,0.00,Wunderground v.1.15,2013-04-09 10:35:00,
2013-04-09 03:37:00,48.5,38.4,30.08,NW,310,4.0,5.0,68,0.00,,,0.00,Wunderground v.1.15,2013-04-09 10:37:00,
2013-04-09 03:38:00,48.4,38.3,30.08,NW,310,4.0,5.0,68,0.00,,,0.00,Wunderground v.1.15,2013-04-09 10:38:00,
2013-04-09 03:40:00,48.3,38.2,30.08,NW,326,3.0,5.0,68,0.00,,,0.00,Wunderground v.1.15,2013-04-09 10:40:00,
2013-04-09 03:41:00,48.4,38.3,30.08,NW,325,4.0,5.0,68,0.00,,,0.00,Wunderground v.1.15,2013-04-09 10:41:00,
2013-04-09 03:43:00,48.4,38.3,30.08,NW,325,4.0,5.0,68,0.00,,,0.00,Wunderground v.1.15,2013-04-09 10:43:00,
2013-04-09 03:44:00,48.4,38.3,30.08,NW,326,4.0,6.0,68,0.00,,,0.00,Wunderground v.1.15,2013-04-09 10:44:00,
2013-04-09 03:45:00,48.3,38.2,30.08,NW,325,2.0,6.0,68,0.00,,,0.00,Wunderground v.1.15,2013-04-09 10:45:00,
2013-04-09 03:46:00,48.3,38.2,30.08,NW,326,4.0,6.0,68,0.00,,,0.00,Wunderground v.1.15,2013-04-09 10:46:00,
2013-04-09 03:48:00,48.2,38.5,30.08,NW,325,5.0,6.0,69,0.00,,,0.00,Wunderground v.1.15,2013-04-09 10:48:00,
2013-04-09 03:49:00,48.2,38.1,30.08,NW,324,2.0,6.0,68,0.00,,,0.00,Wunderground v.1.15,2013-04-09 10:49:00,
2013-04-09 03:50:00,48.2,38.1,30.08,NW,324,3.0,4.0,68,0.00,,,0.00,Wunderground v.1.15,2013-04-09 10:50:00,
2013-04-09 03:51:00,48.2,38.1,30.08,NW,325,4.0,4.0,68,0.00,,,0.00,Wunderground v.1.15,2013-04-09 10:51:00,
2013-04-09 03:53:00,48.4,37.9,30.08,NW,325,3.0,4.0,67,0.00,,,0.00,Wunderground v.1.15,2013-04-09 10:53:00,
2013-04-09 03:54:00,48.4,38.3,30.08,NW,324,2.0,6.0,68,0.00,,,0.00,Wunderground v.1.15,2013-04-09 10:54:00,
2013-04-09 03:57:00,48.5,38.0,30.08,NW,324,4.0,6.0,67,0.00,,,0.00,Wunderground v.1.15,2013-04-09 10:57:00,
2013-04-09 03:58:00,48.6,38.1,30.08,NW,324,3.0,6.0,67,0.00,,,0.00,Wunderground v.1.15,2013-04-09 10:58:00,
2013-04-09 03:59:00,48.6,38.1,30.08,NW,324,2.0,6.0,67,0.00,,,0.00,Wunderground v.1.15,2013-04-09 10:59:00,
2013-04-09 04:02:00,48.5,38.0,30.08,NW,324,2.0,3.0,67,0.00,,,0.00,Wunderground v.1.15,2013-04-09 11:02:00,
2013-04-09 04:04:00,48.1,37.7,30.08,NW,324,2.0,4.0,67,0.00,,,0.00,Wunderground v.1.15,2013-04-09 11:04:00,
2013-04-09 04:08:00,48.1,37.7,30.08,NW,324,1.0,4.0,67,0.00,,,0.00,Wunderground v.1.15,2013-04-09 11:08:00,
2013-04-09 04:10:00,47.9,37.8,30.08,NNW,339,2.0,3.0,68,0.00,,,0.00,Wunderground v.1.15,2013-04-09 11:10:00,
2013-04-09 04:13:00,47.8,37.7,30.08,NNW,339,1.0,3.0,68,0.00,,,0.00,Wunderground v.1.15,2013-04-09 11:13:00,
2013-04-09 04:15:00,47.9,37.8,30.09,NNW,339,2.0,3.0,68,0.00,,,0.00,Wunderground v.1.15,2013-04-09 11:15:00,
2013-04-09 04:18:00,47.7,37.7,30.08,NNW,339,4.0,4.0,68,0.00,,,0.00,Wunderground v.1.15,2013-04-09 11:18:00,
2013-04-09 04:19:00,47.6,37.6,30.08,NNW,339,0.0,4.0,68,0.00,,,0.00,Wunderground v.1.15,2013-04-09 11:19:00,
2013-04-09 04:20:00,47.6,37.9,30.09,NNW,339,1.0,1.0,69,0.00,,,0.00,Wunderground v.1.15,2013-04-09 11:20:00,
2013-04-09 04:23:00,47.7,37.7,30.09,NNW,339,3.0,4.0,68,0.00,,,0.00,Wunderground v.1.15,2013-04-09 11:23:00,
2013-04-09 04:24:00,47.8,37.7,30.09,NNW,339,1.0,4.0,68,0.00,,,0.00,Wunderground v.1.15,2013-04-09 11:24:00,
2013-04-09 04:25:00,47.9,37.8,30.09,NNW,339,0.0,4.0,68,0.00,,,0.00,Wunderground v.1.15,2013-04-09 11:25:00,
2013-04-09 04:28:00,48.1,38.0,30.09,NNW,339,3.0,4.0,68,0.00,,,0.00,Wunderground v.1.15,2013-04-09 11:28:00,
2013-04-09 04:30:00,48.4,37.9,30.08,NNW,339,3.0,3.0,67,0.00,,,0.00,Wunderground v.1.15,2013-04-09 11:30:00,
2013-04-09 04:33:00,49.2,37.9,30.09,NNW,339,3.0,4.0,65,0.00,,,0.00,Wunderground v.1.15,2013-04-09 11:33:00,
2013-04-09 04:35:00,49.4,38.1,30.09,NNW,339,2.0,5.0,65,0.00,,,0.00,Wunderground v.1.15,2013-04-09 11:35:00,
2013-04-09 04:38:00,49.2,37.9,30.09,NNW,339,1.0,5.0,65,0.00,,,0.00,Wunderground v.1.15,2013-04-09 11:38:00,
2013-04-09 04:40:00,49.1,37.8,30.09,NNW,338,2.0,3.0,65,0.00,,,0.00,Wunderground v.1.15,2013-04-09 11:40:00,
2013-04-09 04:43:00,48.8,37.9,30.09,NNW,339,2.0,4.0,66,0.00,,,0.00,Wunderground v.1.15,2013-04-09 11:43:00,
2013-04-09 04:45:00,48.8,37.9,30.09,NNW,336,5.0,5.0,66,0.00,,,0.00,Wunderground v.1.15,2013-04-09 11:45:00,
2013-04-09 04:46:00,48.7,37.8,30.09,NNW,336,3.0,5.0,66,0.00,,,0.00,Wunderground v.1.15,2013-04-09 11:46:00,
2013-04-09 04:48:00,48.6,38.1,30.09,NNW,337,2.0,5.0,67,0.00,,,0.00,Wunderground v.1.15,2013-04-09 11:48:00,
2013-04-09 04:50:00,48.4,37.9,30.09,NNW,337,2.0,3.0,67,0.00,,,0.00,Wunderground v.1.15,2013-04-09 11:50:00,
2013-04-09 04:51:00,48.2,37.8,30.09,NNW,336,3.0,3.0,67,0.00,,,0.00,Wunderground v.1.15,2013-04-09 11:51:00,
2013-04-09 04:53:00,47.9,37.8,30.09,NNW,337,3.0,4.0,68,0.00,,,0.00,Wunderground v.1.15,2013-04-09 11:53:00,
2013-04-09 04:55:00,47.9,37.8,30.09,NNW,335,3.0,6.0,68,0.00,,,0.00,Wunderground v.1.15,2013-04-09 11:55:00,
2013-04-09 04:56:00,47.8,37.7,30.09,NNW,335,3.0,6.0,68,0.00,,,0.00,Wunderground v.1.15,2013-04-09 11:56:00,
2013-04-09 04:58:00,47.8,38.1,30.09,NNW,333,3.0,6.0,69,0.00,,,0.00,Wunderground v.1.15,2013-04-09 11:58:00,
2013-04-09 05:00:00,47.8,38.1,30.09,NNW,332,4.0,5.0,69,0.00,,,0.00,Wunderground v.1.15,2013-04-09 12:00:00,
2013-04-09 05:02:00,47.8,38.1,30.09,NNW,332,0.0,5.0,69,0.00,,,0.00,Wunderground v.1.15,2013-04-09 12:02:00,
2013-04-09 05:04:00,47.7,38.0,30.09,NNW,332,0.0,5.0,69,0.00,,,0.00,Wunderground v.1.15,2013-04-09 12:04:00,
2013-04-09 05:06:00,47.6,37.9,30.09,NNW,332,0.0,5.0,69,0.00,,,0.00,Wunderground v.1.15,2013-04-09 12:06:00,
2013-04-09 05:08:00,47.5,37.8,30.09,NNW,333,4.0,5.0,69,0.00,,,0.00,Wunderground v.1.15,2013-04-09 12:08:00,
2013-04-09 05:09:00,47.4,37.7,30.09,NNW,334,2.0,5.0,69,0.00,,,0.00,Wunderground v.1.15,2013-04-09 12:09:00,
2013-04-09 05:11:00,47.5,37.8,30.09,NNW,333,2.0,3.0,69,0.00,,,0.00,Wunderground v.1.15,2013-04-09 12:11:00,
2013-04-09 05:13:00,47.8,38.1,30.09,NNW,333,2.0,3.0,69,0.00,,,0.00,Wunderground v.1.15,2013-04-09 12:13:00,
2013-04-09 05:14:00,48.1,38.0,30.09,NNW,333,1.0,3.0,68,0.00,,,0.00,Wunderground v.1.15,2013-04-09 12:14:00,
2013-04-09 05:16:00,48.2,38.1,30.09,NNW,333,0.0,3.0,68,0.00,,,0.00,Wunderground v.1.15,2013-04-09 12:16:00,
2013-04-09 05:18:00,48.2,38.1,30.09,NNW,333,2.0,3.0,68,0.00,,,0.00,Wunderground v.1.15,2013-04-09 12:18:00,
2013-04-09 05:20:00,48.3,38.2,30.09,NNW,333,1.0,1.0,68,0.00,,,0.00,Wunderground v.1.15,2013-04-09 12:20:00,
2013-04-09 05:22:00,48.5,38.0,30.09,NNW,333,1.0,2.0,67,0.00,,,0.00,Wunderground v.1.15,2013-04-09 12:22:00,
2013-04-09 05:23:00,48.7,38.2,30.09,NNW,333,2.0,3.0,67,0.00,,,0.00,Wunderground v.1.15,2013-04-09 12:23:00,
2013-04-09 05:25:00,48.9,38.0,30.09,NNW,333,1.0,3.0,66,0.00,,,0.00,Wunderground v.1.15,2013-04-09 12:25:00,
2013-04-09 05:27:00,49.0,38.1,30.09,NNW,333,2.0,3.0,66,0.00,,,0.00,Wunderground v.1.15,2013-04-09 12:27:00,
2013-04-09 05:29:00,49.0,37.7,30.09,NNW,334,2.0,3.0,65,0.00,,,0.00,Wunderground v.1.15,2013-04-09 12:29:00,
2013-04-09 05:30:00,49.0,38.1,30.09,NNW,333,0.0,2.0,66,0.00,,,0.00,Wunderground v.1.15,2013-04-09 12:30:00,
2013-04-09 05:32:00,48.9,38.0,30.10,NNW,333,0.0,2.0,66,0.00,,,0.00,Wunderground v.1.15,2013-04-09 12:32:00,
2013-04-09 05:34:00,48.6,37.7,30.09,NNW,333,1.0,2.0,66,0.00,,,0.00,Wunderground v.1.15,2013-04-09 12:34:00,
2013-04-09 05:35:00,48.5,38.0,30.09,NNW,333,1.0,2.0,67,0.00,,,0.00,Wunderground v.1.15,2013-04-09 12:35:00,
2013-04-09 05:37:00,48.0,37.6,30.09,NNW,333,2.0,3.0,67,0.00,,,0.00,Wunderground v.1.15,2013-04-09 12:37:00,
2013-04-09 05:39:00,47.9,37.8,30.09,NNW,333,3.0,4.0,68,0.00,,,0.00,Wunderground v.1.15,2013-04-09 12:39:00,
2013-04-09 05:40:00,47.9,37.8,30.10,NNW,333,3.0,3.0,68,0.00,,,0.00,Wunderground v.1.15,2013-04-09 12:40:00,
2013-04-09 05:42:00,47.9,37.8,30.10,NNW,333,3.0,3.0,68,0.00,,,0.00,Wunderground v.1.15,2013-04-09 12:42:00,
2013-04-09 05:44:00,47.9,37.5,30.10,NNW,334,3.0,4.0,67,0.00,,,0.00,Wunderground v.1.15,2013-04-09 12:44:00,
2013-04-09 05:45:00,47.9,37.5,30.10,NNW,333,3.0,4.0,67,0.00,,,0.00,Wunderground v.1.15,2013-04-09 12:45:00,
2013-04-09 05:47:00,48.1,37.7,30.10,NNW,333,1.0,4.0,67,0.00,,,0.00,Wunderground v.1.15,2013-04-09 12:47:00,
2013-04-09 05:49:00,48.3,37.5,30.10,NNW,333,0.0,4.0,66,0.00,,,0.00,Wunderground v.1.15,2013-04-09 12:49:00,
2013-04-09 05:50:00,48.3,37.5,30.10,NNW,333,0.0,2.0,66,0.00,,,0.00,Wunderground v.1.15,2013-04-09 12:50:00,
2013-04-09 05:52:00,48.3,37.8,30.10,NNW,333,1.0,2.0,67,0.00,,,0.00,Wunderground v.1.15,2013-04-09 12:52:00,
2013-04-09 05:53:00,48.2,37.8,30.10,NNW,333,0.0,2.0,67,0.00,,,0.00,Wunderground v.1.15,2013-04-09 12:53:00,
2013-04-09 05:55:00,48.2,37.8,30.10,NNW,333,2.0,3.0,67,0.00,,,0.00,Wunderground v.1.15,2013-04-09 12:55:00,
2013-04-09 05:57:00,48.2,37.8,30.10,NNW,333,2.0,3.0,67,0.00,,,0.00,Wunderground v.1.15,2013-04-09 12:57:00,
2013-04-09 05:58:00,48.2,37.8,30.10,NNW,333,0.0,3.0,67,0.00,,,0.00,Wunderground v.1.15,2013-04-09 12:58:00,
2013-04-09 06:01:00,48.2,37.8,30.10,NNW,333,1.0,2.0,67,0.00,,,0.00,Wunderground v.1.15,2013-04-09 13:01:00,
2013-04-09 06:02:00,48.2,37.8,30.10,NNW,333,1.0,2.0,67,0.00,,,0.00,Wunderground v.1.15,2013-04-09 13:02:00,
2013-04-09 06:03:00,48.1,37.7,30.10,NNW,333,1.0,2.0,67,0.00,,,0.00,Wunderground v.1.15,2013-04-09 13:03:00,
2013-04-09 06:06:00,48.1,37.7,30.11,NNW,333,2.0,2.0,67,0.00,,,0.00,Wunderground v.1.15,2013-04-09 13:06:00,
2013-04-09 06:08:00,48.2,37.4,30.11,NNW,334,2.0,2.0,66,0.00,,,0.00,Wunderground v.1.15,2013-04-09 13:08:00,
2013-04-09 06:11:00,48.3,37.5,30.10,NNW,333,2.0,2.0,66,0.00,,,0.00,Wunderground v.1.15,2013-04-09 13:11:00,
2013-04-09 06:12:00,48.3,37.5,30.10,NNW,333,2.0,2.0,66,0.00,,,0.00,Wunderground v.1.15,2013-04-09 13:12:00,
2013-04-09 06:13:00,48.2,37.4,30.11,NNW,333,0.0,2.0,66,0.00,,,0.00,Wunderground v.1.15,2013-04-09 13:13:00,
2013-04-09 06:17:00,48.1,37.7,30.11,NNW,333,1.0,2.0,67,0.00,,,0.00,Wunderground v.1.15,2013-04-09 13:17:00,
2013-04-09 06:18:00,48.1,37.7,30.11,NNW,333,1.0,2.0,67,0.00,,,0.00,Wunderground v.1.15,2013-04-09 13:18:00,
2013-04-09 06:22:00,47.8,37.7,30.11,NNW,333,2.0,2.0,68,0.00,,,0.00,Wunderground v.1.15,2013-04-09 13:22:00,
2013-04-09 06:23:00,47.8,37.7,30.11,NNW,333,1.0,2.0,68,0.00,,,0.00,Wunderground v.1.15,2013-04-09 13:23:00,
2013-04-09 06:27:00,47.7,37.7,30.11,NNW,334,0.0,3.0,68,0.00,,,0.00,Wunderground v.1.15,2013-04-09 13:27:00,
2013-04-09 06:28:00,47.7,37.7,30.11,NNW,333,0.0,3.0,68,0.00,,,0.00,Wunderground v.1.15,2013-04-09 13:28:00,
2013-04-09 06:29:00,47.6,37.6,30.11,NNW,333,1.0,3.0,68,0.00,,,0.00,Wunderground v.1.15,2013-04-09 13:29:00,
2013-04-09 06:33:00,47.2,37.5,30.11,NNW,333,4.0,4.0,69,0.00,,,0.00,Wunderground v.1.15,2013-04-09 13:33:00,
2013-04-09 06:34:00,47.2,37.5,30.11,NNW,332,4.0,4.0,69,0.00,,,0.00,Wunderground v.1.15,2013-04-09 13:34:00,
2013-04-09 06:38:00,47.4,37.7,30.11,NNW,330,3.0,5.0,69,0.00,,,0.00,Wunderground v.1.15,2013-04-09 13:38:00,
2013-04-09 06:39:00,47.4,37.7,30.11,NNW,330,3.0,5.0,69,0.00,,,0.00,Wunderground v.1.15,2013-04-09 13:39:00,
2013-04-09 06:43:00,47.1,37.4,30.11,NNW,330,1.0,3.0,69,0.00,,,0.00,Wunderground v.1.15,2013-04-09 13:43:00,
2013-04-09 06:44:00,46.9,37.3,30.12,NNW,330,1.0,3.0,69,0.00,,,0.00,Wunderground v.1.15,2013-04-09 13:44:00,
2013-04-09 06:48:00,46.4,37.5,30.12,NNW,330,1.0,3.0,71,0.00,,,0.00,Wunderground v.1.15,2013-04-09 13:48:00,
2013-04-09 06:49:00,46.2,37.3,30.11,NNW,330,0.0,3.0,71,0.00,,,0.00,Wunderground v.1.15,2013-04-09 13:49:00,
2013-04-09 06:50:00,46.2,37.3,30.11,NNW,330,0.0,1.0,71,0.00,,,0.00,Wunderground v.1.15,2013-04-09 13:50:00,
2013-04-09 06:54:00,45.9,37.4,30.11,NNW,330,0.0,1.0,72,0.00,,,0.00,Wunderground v.1.15,2013-04-09 13:54:00,
2013-04-09 06:55:00,45.9,37.4,30.12,NNW,330,0.0,1.0,72,0.00,,,0.00,Wunderground v.1.15,2013-04-09 13:55:00,
2013-04-09 07:00:00,45.9,37.7,30.12,NNW,330,0.0,1.0,73,0.00,,,0.00,Wunderground v.1.15,2013-04-09 14:00:00,
2013-04-09 07:05:00,46.1,37.9,30.12,NNW,329,0.0,1.0,73,0.00,,,0.00,Wunderground v.1.15,2013-04-09 14:05:00,
2013-04-09 07:10:00,46.2,38.0,30.12,NNW,328,3.0,3.0,73,0.00,,,0.00,Wunderground v.1.15,2013-04-09 14:10:00,
2013-04-09 07:15:00,46.3,38.1,30.12,NNW,328,0.0,4.0,73,0.00,,,0.00,Wunderground v.1.15,2013-04-09 14:15:00,
2013-04-09 07:16:00,46.3,38.1,30.12,NNW,328,1.0,4.0,73,0.00,,,0.00,Wunderground v.1.15,2013-04-09 14:16:00,
2013-04-09 07:20:00,46.8,38.6,30.11,NW,324,2.0,2.0,73,0.00,,,0.00,Wunderground v.1.15,2013-04-09 14:20:00,
2013-04-09 07:22:00,47.1,38.5,30.12,NW,324,4.0,4.0,72,0.00,,,0.00,Wunderground v.1.15,2013-04-09 14:22:00,
2013-04-09 07:25:00,47.5,38.6,30.11,NW,319,3.0,5.0,71,0.00,,,0.00,Wunderground v.1.15,2013-04-09 14:25:00,
2013-04-09 07:27:00,47.7,38.4,30.11,NW,317,4.0,5.0,70,0.00,,,0.00,Wunderground v.1.15,2013-04-09 14:27:00,
2013-04-09 07:30:00,48.4,37.9,30.12,NW,312,2.0,4.0,67,0.00,,,0.00,Wunderground v.1.15,2013-04-09 14:30:00,
2013-04-09 07:32:00,48.8,38.7,30.12,NW,312,2.0,4.0,68,0.00,,,0.00,Wunderground v.1.15,2013-04-09 14:32:00,
2013-04-09 07:33:00,48.8,38.7,30.12,NW,312,3.0,4.0,68,0.00,,,0.00,Wunderground v.1.15,2013-04-09 14:33:00,
2013-04-09 07:35:00,49.2,38.3,30.11,NW,309,3.0,5.0,66,0.00,,,0.00,Wunderground v.1.15,2013-04-09 14:35:00,
2013-04-09 07:37:00,49.4,38.5,30.12,NW,309,2.0,5.0,66,0.00,,,0.00,Wunderground v.1.15,2013-04-09 14:37:00,
2013-04-09 07:38:00,49.5,38.6,30.12,NW,309,2.0,5.0,66,0.00,,,0.00,Wunderground v.1.15,2013-04-09 14:38:00,
2013-04-09 07:40:00,49.4,38.9,30.12,NW,309,3.0,3.0,67,0.00,,,0.00,Wunderground v.1.15,2013-04-09 14:40:00,
2013-04-09 07:42:00,49.4,38.9,30.12,NW,309,3.0,3.0,67,0.00,,,0.00,Wunderground v.1.15,2013-04-09 14:42:00,
2013-04-09 07:43:00,49.4,38.9,30.12,NW,309,1.0,4.0,67,0.00,,,0.00,Wunderground v.1.15,2013-04-09 14:43:00,
2013-04-09 07:46:00,49.6,39.1,30.12,NW,314,1.0,5.0,67,0.00,,,0.00,Wunderground v.1.15,2013-04-09 14:46:00,
2013-04-09 07:47:00,49.6,39.1,30.12,NW,314,0.0,5.0,67,0.00,,,0.00,Wunderground v.1.15,2013-04-09 14:47:00,
2013-04-09 07:48:00,49.7,39.2,30.12,NW,314,2.0,5.0,67,0.00,,,0.00,Wunderground v.1.15,2013-04-09 14:48:00,
2013-04-09 07:49:00,49.7,39.2,30.12,NW,314,0.0,5.0,67,0.00,,,0.00,Wunderground v.1.15,2013-04-09 14:49:00,
2013-04-09 07:51:00,49.9,39.4,30.12,NW,315,0.0,1.0,67,0.00,,,0.00,Wunderground v.1.15,2013-04-09 14:51:00,
2013-04-09 07:52:00,50.0,39.5,30.12,NW,314,0.0,1.0,67,0.00,,,0.00,Wunderground v.1.15,2013-04-09 14:52:00,
2013-04-09 07:53:00,50.1,39.6,30.12,NW,314,0.0,1.0,67,0.00,,,0.00,Wunderground v.1.15,2013-04-09 14:53:00,
2013-04-09 07:54:00,50.3,39.8,30.12,NW,315,0.0,1.0,67,0.00,,,0.00,Wunderground v.1.15,2013-04-09 14:54:00,
2013-04-09 07:57:00,50.6,39.7,30.13,NW,315,0.0,1.0,66,0.00,,,0.00,Wunderground v.1.15,2013-04-09 14:57:00,
2013-04-09 07:59:00,51.0,38.8,30.12,NW,314,0.0,1.0,63,0.00,,,0.00,Wunderground v.1.15,2013-04-09 14:59:00,
2013-04-09 08:00:00,51.2,39.4,30.12,NW,314,0.0,0.0,64,0.00,,,0.00,Wunderground v.1.15,2013-04-09 15:00:00,
2013-04-09 08:02:00,51.5,39.7,30.13,NW,314,1.0,1.0,64,0.00,,,0.00,Wunderground v.1.15,2013-04-09 15:02:00,
2013-04-09 08:03:00,51.8,40.0,30.13,NW,314,2.0,2.0,64,0.00,,,0.00,Wunderground v.1.15,2013-04-09 15:03:00,
2013-04-09 08:04:00,52.1,38.6,30.13,NW,314,2.0,3.0,60,0.00,,,0.00,Wunderground v.1.15,2013-04-09 15:04:00,
2013-04-09 08:07:00,52.6,39.1,30.13,NW,314,0.0,3.0,60,0.00,,,0.00,Wunderground v.1.15,2013-04-09 15:07:00,
2013-04-09 08:08:00,53.0,39.5,30.13,NW,314,5.0,5.0,60,0.00,,,0.00,Wunderground v.1.15,2013-04-09 15:08:00,
2013-04-09 08:09:00,53.3,39.3,30.13,NW,314,2.0,5.0,59,0.00,,,0.00,Wunderground v.1.15,2013-04-09 15:09:00,
2013-04-09 08:12:00,53.7,39.3,30.13,NW,314,0.0,3.0,58,0.00,,,0.00,Wunderground v.1.15,2013-04-09 15:12:00,
2013-04-09 08:14:00,53.9,39.0,30.13,NW,314,3.0,3.0,57,0.00,,,0.00,Wunderground v.1.15,2013-04-09 15:14:00,
2013-04-09 08:17:00,54.5,39.1,30.13,NW,314,1.0,3.0,56,0.00,,,0.00,Wunderground v.1.15,2013-04-09 15:17:00,
2013-04-09 08:19:00,54.8,39.4,30.13,NW,314,0.0,3.0,56,0.00,,,0.00,Wunderground v.1.15,2013-04-09 15:19:00,
2013-04-09 08:22:00,55.5,39.6,30.13,NW,314,1.0,2.0,55,0.00,,,0.00,Wunderground v.1.15,2013-04-09 15:22:00,
2013-04-09 08:23:00,55.6,39.7,30.13,NW,314,2.0,2.0,55,0.00,,,0.00,Wunderground v.1.15,2013-04-09 15:23:00,
2013-04-09 08:24:00,55.8,39.9,30.13,NW,314,3.0,3.0,55,0.00,,,0.00,Wunderground v.1.15,2013-04-09 15:24:00,
2013-04-09 08:25:00,56.0,40.1,30.13,NW,314,0.0,3.0,55,0.00,,,0.00,Wunderground v.1.15,2013-04-09 15:25:00,
2013-04-09 08:27:00,56.4,39.5,30.13,NW,314,3.0,3.0,53,0.00,,,0.00,Wunderground v.1.15,2013-04-09 15:27:00,
2013-04-09 08:28:00,56.4,39.5,30.13,NW,314,2.0,4.0,53,0.00,,,0.00,Wunderground v.1.15,2013-04-09 15:28:00,
2013-04-09 08:29:00,56.7,38.8,30.13,NW,314,1.0,4.0,51,0.00,,,0.00,Wunderground v.1.15,2013-04-09 15:29:00,
2013-04-09 08:32:00,57.1,39.1,30.14,NW,314,0.0,1.0,51,0.00,,,0.00,Wunderground v.1.15,2013-04-09 15:32:00,
2013-04-09 08:33:00,57.3,38.8,30.13,NW,314,0.0,1.0,50,0.00,,,0.00,Wunderground v.1.15,2013-04-09 15:33:00,
2013-04-09 08:34:00,57.7,38.1,30.13,NW,314,3.0,3.0,48,0.00,,,0.00,Wunderground v.1.15,2013-04-09 15:34:00,
2013-04-09 08:35:00,57.7,38.1,30.14,NW,314,2.0,3.0,48,0.00,,,0.00,Wunderground v.1.15,2013-04-09 15:35:00,
2013-04-09 08:37:00,58.2,37.5,30.13,NW,315,2.0,3.0,46,0.00,,,0.00,Wunderground v.1.15,2013-04-09 15:37:00,
2013-04-09 08:39:00,58.5,37.2,30.13,NW,314,2.0,3.0,45,0.00,,,0.00,Wunderground v.1.15,2013-04-09 15:39:00,
2013-04-09 08:40:00,58.7,37.4,30.13,NW,314,4.0,4.0,45,0.00,,,0.00,Wunderground v.1.15,2013-04-09 15:40:00,
2013-04-09 08:42:00,59.1,36.0,30.13,NW,314,1.0,6.0,42,0.00,,,0.00,Wunderground v.1.15,2013-04-09 15:42:00,
2013-04-09 08:44:00,59.6,35.2,30.13,NNW,338,3.0,8.0,40,0.00,,,0.00,Wunderground v.1.15,2013-04-09 15:44:00,
2013-04-09 08:45:00,59.7,35.3,30.13,NNW,338,3.0,8.0,40,0.00,,,0.00,Wunderground v.1.15,2013-04-09 15:45:00,
2013-04-09 08:47:00,60.1,35.0,30.13,NNW,339,1.0,8.0,39,0.00,,,0.00,Wunderground v.1.15,2013-04-09 15:47:00,
2013-04-09 08:49:00,60.4,35.9,30.13,NNW,338,1.0,3.0,40,0.00,,,0.00,Wunderground v.1.15,2013-04-09 15:49:00,
2013-04-09 08:50:00,60.4,35.9,30.13,NNW,339,0.0,3.0,40,0.00,,,0.00,Wunderground v.1.15,2013-04-09 15:50:00,
2013-04-09 08:53:00,60.8,36.3,30.13,NNW,339,0.0,3.0,40,0.00,,,0.00,Wunderground v.1.15,2013-04-09 15:53:00,
2013-04-09 08:55:00,61.1,35.3,30.13,NW,320,5.0,7.0,38,0.00,,,0.00,Wunderground v.1.15,2013-04-09 15:55:00,
2013-04-09 08:58:00,61.4,34.9,30.13,NW,320,2.0,7.0,37,0.00,,,0.00,Wunderground v.1.15,2013-04-09 15:58:00,
2013-04-09 09:00:00,61.6,34.4,30.13,NW,320,4.0,4.0,36,0.00,,,0.00,Wunderground v.1.15,2013-04-09 16:00:00,
2013-04-09 09:03:00,61.8,34.5,30.13,NW,318,4.0,6.0,36,0.00,,,0.00,Wunderground v.1.15,2013-04-09 16:03:00,
2013-04-09 09:05:00,61.9,35.3,30.13,NW,320,3.0,6.0,37,0.00,,,0.00,Wunderground v.1.15,2013-04-09 16:05:00,
2013-04-09 09:06:00,62.0,35.4,30.13,NW,320,5.0,6.0,37,0.00,,,0.00,Wunderground v.1.15,2013-04-09 16:06:00,
2013-04-09 09:08:00,62.1,33.4,30.13,NNE,12,7.0,10.0,34,0.00,,,0.00,Wunderground v.1.15,2013-04-09 16:08:00,
2013-04-09 09:10:00,62.1,34.1,30.13,North,8,3.0,5.0,35,0.00,,,0.00,Wunderground v.1.15,2013-04-09 16:10:00,
2013-04-09 09:11:00,62.2,34.2,30.13,North,8,3.0,5.0,35,0.00,,,0.00,Wunderground v.1.15,2013-04-09 16:11:00,
2013-04-09 09:13:00,62.3,34.3,30.13,NNW,345,1.0,6.0,35,0.00,,,0.00,Wunderground v.1.15,2013-04-09 16:13:00,
2013-04-09 09:15:00,62.4,33.6,30.13,NNW,340,2.0,6.0,34,0.00,,,0.00,Wunderground v.1.15,2013-04-09 16:15:00,
2013-04-09 09:16:00,62.5,33.7,30.13,NNW,335,4.0,6.0,34,0.00,,,0.00,Wunderground v.1.15,2013-04-09 16:16:00,
2013-04-09 09:18:00,62.7,34.6,30.12,NW,317,7.0,7.0,35,0.00,,,0.00,Wunderground v.1.15,2013-04-09 16:18:00,
2013-04-09 09:20:00,62.9,34.1,30.12,NNW,341,7.0,11.0,34,0.00,,,0.00,Wunderground v.1.15,2013-04-09 16:20:00,
2013-04-09 09:21:00,62.8,34.0,30.13,NNE,18,7.0,11.0,34,0.00,,,0.00,Wunderground v.1.15,2013-04-09 16:21:00,
2013-04-09 09:22:00,62.9,34.8,30.13,North,11,5.0,11.0,35,0.00,,,0.00,Wunderground v.1.15,2013-04-09 16:22:00,
2013-04-09 09:23:00,63.1,35.0,30.13,NNE,18,4.0,11.0,35,0.00,,,0.00,Wunderground v.1.15,2013-04-09 16:23:00,
2013-04-09 09:25:00,63.4,33.8,30.13,North,4,6.0,12.0,33,0.00,,,0.00,Wunderground v.1.15,2013-04-09 16:25:00,
2013-04-09 09:26:00,63.5,33.9,30.13,NNW,332,15.0,17.0,33,0.00,,,0.00,Wunderground v.1.15,2013-04-09 16:26:00,
2013-04-09 09:27:00,63.3,33.7,30.13,NNW,334,7.0,17.0,33,0.00,,,0.00,Wunderground v.1.15,2013-04-09 16:27:00,
2013-04-09 09:28:00,63.2,33.6,30.13,North,4,6.0,17.0,33,0.00,,,0.00,Wunderground v.1.15,2013-04-09 16:28:00,
2013-04-09 09:30:00,63.3,33.7,30.13,NNW,327,14.0,16.0,33,0.00,,,0.00,Wunderground v.1.15,2013-04-09 16:30:00,
2013-04-09 09:31:00,63.3,33.7,30.13,North,354,11.0,16.0,33,0.00,,,0.00,Wunderground v.1.15,2013-04-09 16:31:00,
2013-04-09 09:32:00,63.3,32.9,30.13,NNW,332,11.0,16.0,32,0.00,,,0.00,Wunderground v.1.15,2013-04-09 16:32:00,
2013-04-09 09:33:00,63.3,32.9,30.13,North,354,17.0,17.0,32,0.00,,,0.00,Wunderground v.1.15,2013-04-09 16:33:00,
2013-04-09 09:35:00,63.2,32.8,30.13,North,354,8.0,24.0,32,0.00,,,0.00,Wunderground v.1.15,2013-04-09 16:35:00,
2013-04-09 09:36:00,63.3,32.9,30.13,North,354,11.0,24.0,32,0.00,,,0.00,Wunderground v.1.15,2013-04-09 16:36:00,
2013-04-09 09:38:00,63.4,33.0,30.13,NNW,328,11.0,24.0,32,0.00,,,0.00,Wunderground v.1.15,2013-04-09 16:38:00,
2013-04-09 09:39:00,63.4,33.0,30.13,NNW,332,8.0,24.0,32,0.00,,,0.00,Wunderground v.1.15,2013-04-09 16:39:00,
2013-04-09 09:41:00,63.5,33.9,30.13,North,4,9.0,11.0,33,0.00,,,0.00,Wunderground v.1.15,2013-04-09 16:41:00,
2013-04-09 09:42:00,63.6,33.9,30.13,North,354,10.0,15.0,33,0.00,,,0.00,Wunderground v.1.15,2013-04-09 16:42:00,
2013-04-09 09:43:00,63.6,32.4,30.13,North,4,8.0,15.0,31,0.00,,,0.00,Wunderground v.1.15,2013-04-09 16:43:00,
2013-04-09 09:45:00,63.8,32.6,30.12,NNW,347,8.0,16.0,31,0.00,,,0.00,Wunderground v.1.15,2013-04-09 16:45:00,
2013-04-09 09:46:00,63.8,32.6,30.12,North,8,5.0,16.0,31,0.00,,,0.00,Wunderground v.1.15,2013-04-09 16:46:00,
2013-04-09 09:48:00,64.0,33.5,30.12,North,8,9.0,16.0,32,0.00,,,0.00,Wunderground v.1.15,2013-04-09 16:48:00,
2013-04-09 09:50:00,64.2,32.9,30.12,NNW,330,11.0,12.0,31,0.00,,,0.00,Wunderground v.1.15,2013-04-09 16:50:00,
2013-04-09 09:52:00,64.3,32.2,30.12,NNE,18,10.0,15.0,30,0.00,,,0.00,Wunderground v.1.15,2013-04-09 16:52:00,
2013-04-09 09:53:00,64.2,32.1,30.12,NNW,347,10.0,20.0,30,0.00,,,0.00,Wunderground v.1.15,2013-04-09 16:53:00,
2013-04-09 09:55:00,64.1,32.8,30.12,NNW,344,9.0,20.0,31,0.00,,,0.00,Wunderground v.1.15,2013-04-09 16:55:00,
2013-04-09 09:57:00,64.3,33.0,30.12,NNW,343,10.0,20.0,31,0.00,,,0.00,Wunderground v.1.15,2013-04-09 16:57:00,
2013-04-09 10:00:00,64.5,33.2,30.12,North,354,13.0,17.0,31,0.00,,,0.00,Wunderground v.1.15,2013-04-09 17:00:00,
2013-04-09 10:01:00,64.5,32.4,30.13,North,4,13.0,17.0,30,0.00,,,0.00,Wunderground v.1.15,2013-04-09 17:01:00,
2013-04-09 10:03:00,64.5,32.4,30.12,NNW,343,17.0,17.0,30,0.00,,,0.00,Wunderground v.1.15,2013-04-09 17:03:00,
2013-04-09 10:05:00,64.5,32.4,30.12,North,354,16.0,17.0,30,0.00,,,0.00,Wunderground v.1.15,2013-04-09 17:05:00,
2013-04-09 10:06:00,64.5,31.5,30.12,North,10,16.0,18.0,29,0.00,,,0.00,Wunderground v.1.15,2013-04-09 17:06:00,
2013-04-09 10:08:00,64.7,33.3,30.13,NNE,17,13.0,18.0,31,0.00,,,0.00,Wunderground v.1.15,2013-04-09 17:08:00,
2013-04-09 10:10:00,64.9,31.9,30.12,North,4,14.0,23.0,29,0.00,,,0.00,Wunderground v.1.15,2013-04-09 17:10:00,
2013-04-09 10:12:00,64.7,31.7,30.12,NNE,19,13.0,23.0,29,0.00,,,0.00,Wunderground v.1.15,2013-04-09 17:12:00,
2013-04-09 10:13:00,64.8,32.6,30.12,North,9,9.0,23.0,30,0.00,,,0.00,Wunderground v.1.15,2013-04-09 17:13:00,
2013-04-09 10:15:00,65.0,32.8,30.13,North,354,12.0,23.0,30,0.00,,,0.00,Wunderground v.1.15,2013-04-09 17:15:00,
2013-04-09 10:17:00,64.9,31.9,30.13,NNW,328,6.0,23.0,29,0.00,,,0.00,Wunderground v.1.15,2013-04-09 17:17:00,
2013-04-09 10:18:00,64.9,31.9,30.12,NNW,340,11.0,23.0,29,0.00,,,0.00,Wunderground v.1.15,2013-04-09 17:18:00,
2013-04-09 10:20:00,65.3,32.2,30.12,NNE,26,9.0,13.0,29,0.00,,,0.00,Wunderground v.1.15,2013-04-09 17:20:00,
2013-04-09 10:21:00,65.3,32.2,30.12,NNE,30,11.0,13.0,29,0.00,,,0.00,Wunderground v.1.15,2013-04-09 17:21:00,
2013-04-09 10:22:00,65.6,32.5,30.13,North,4,12.0,14.0,29,0.00,,,0.00,Wunderground v.1.15,2013-04-09 17:22:00,
2013-04-09 10:23:00,65.7,32.5,30.12,North,8,15.0,19.0,29,0.00,,,0.00,Wunderground v.1.15,2013-04-09 17:23:00,
2013-04-09 10:25:00,65.6,31.6,30.12,NNE,21,10.0,19.0,28,0.00,,,0.00,Wunderground v.1.15,2013-04-09 17:25:00,
2013-04-09 10:26:00,65.6,31.6,30.12,NNE,12,5.0,19.0,28,0.00,,,0.00,Wunderground v.1.15,2013-04-09 17:26:00,
2013-04-09 10:27:00,65.9,32.7,30.12,NNE,26,7.0,19.0,29,0.00,,,0.00,Wunderground v.1.15,2013-04-09 17:27:00,
2013-04-09 10:28:00,66.0,32.8,30.12,NNE,21,12.0,19.0,29,0.00,,,0.00,Wunderground v.1.15,2013-04-09 17:28:00,
2013-04-09 10:30:00,66.2,32.1,30.12,NNE,23,13.0,18.0,28,0.00,,,0.00,Wunderground v.1.15,2013-04-09 17:30:00,
2013-04-09 10:31:00,66.2,32.1,30.12,North,11,10.0,18.0,28,0.00,,,0.00,Wunderground v.1.15,2013-04-09 17:31:00,
2013-04-09 10:33:00,66.2,32.1,30.12,North,8,14.0,18.0,28,0.00,,,0.00,Wunderground v.1.15,2013-04-09 17:33:00,
2013-04-09 10:35:00,66.3,33.1,30.12,NNE,17,21.0,21.0,29,0.00,,,0.00,Wunderground v.1.15,2013-04-09 17:35:00,
2013-04-09 10:38:00,66.2,32.1,30.12,NNE,23,11.0,21.0,28,0.00,,,0.00,Wunderground v.1.15,2013-04-09 17:38:00,
2013-04-09 10:39:00,66.1,32.0,30.12,NNE,19,11.0,21.0,28,0.00,,,0.00,Wunderground v.1.15,2013-04-09 17:39:00,
2013-04-09 10:42:00,66.3,32.2,30.12,North,354,13.0,21.0,28,0.00,,,0.00,Wunderground v.1.15,2013-04-09 17:42:00,
2013-04-09 10:43:00,66.3,32.2,30.12,NE,45,14.0,21.0,28,0.00,,,0.00,Wunderground v.1.15,2013-04-09 17:43:00,
2013-04-09 10:44:00,66.4,32.3,30.12,North,359,13.0,21.0,28,0.00,,,0.00,Wunderground v.1.15,2013-04-09 17:44:00,
2013-04-09 10:47:00,66.4,32.3,30.12,NNE,31,13.0,21.0,28,0.00,,,0.00,Wunderground v.1.15,2013-04-09 17:47:00,
2013-04-09 10:48:00,66.3,32.2,30.12,NNE,31,12.0,21.0,28,0.00,,,0.00,Wunderground v.1.15,2013-04-09 17:48:00,
2013-04-09 10:50:00,66.4,33.2,30.12,North,9,5.0,12.0,29,0.00,,,0.00,Wunderground v.1.15,2013-04-09 17:50:00,
2013-04-09 10:52:00,66.8,31.7,30.12,NNW,347,12.0,14.0,27,0.00,,,0.00,Wunderground v.1.15,2013-04-09 17:52:00,
2013-04-09 10:53:00,66.8,31.7,30.12,NNE,24,18.0,18.0,27,0.00,,,0.00,Wunderground v.1.15,2013-04-09 17:53:00,
2013-04-09 10:55:00,66.8,32.6,30.12,NNE,14,8.0,18.0,28,0.00,,,0.00,Wunderground v.1.15,2013-04-09 17:55:00,
2013-04-09 10:58:00,67.1,32.0,30.12,NW,318,9.0,18.0,27,0.00,,,0.00,Wunderground v.1.15,2013-04-09 17:58:00,
2013-04-09 10:59:00,67.2,32.1,30.12,NNE,12,8.0,18.0,27,0.00,,,0.00,Wunderground v.1.15,2013-04-09 17:59:00,
2013-04-09 11:01:00,67.2,32.1,30.12,North,354,8.0,13.0,27,0.00,,,0.00,Wunderground v.1.15,2013-04-09 18:01:00,
2013-04-09 11:03:00,67.1,32.0,30.12,North,11,6.0,13.0,27,0.00,,,0.00,Wunderground v.1.15,2013-04-09 18:03:00,
2013-04-09 11:04:00,67.2,32.1,30.12,North,4,7.0,13.0,27,0.00,,,0.00,Wunderground v.1.15,2013-04-09 18:04:00,
2013-04-09 11:06:00,67.7,33.4,30.12,NNE,32,13.0,13.0,28,0.00,,,0.00,Wunderground v.1.15,2013-04-09 18:06:00,
2013-04-09 11:08:00,67.7,32.5,30.12,NNE,23,8.0,13.0,27,0.00,,,0.00,Wunderground v.1.15,2013-04-09 18:08:00,
2013-04-09 11:09:00,67.7,33.4,30.12,NNW,345,10.0,13.0,28,0.00,,,0.00,Wunderground v.1.15,2013-04-09 18:09:00,
2013-04-09 11:10:00,67.7,32.5,30.12,NNE,16,7.0,9.0,27,0.00,,,0.00,Wunderground v.1.15,2013-04-09 18:10:00,
2013-04-09 11:12:00,67.9,33.6,30.12,NNE,29,9.0,13.0,28,0.00,,,0.00,Wunderground v.1.15,2013-04-09 18:12:00,
2013-04-09 11:13:00,67.9,33.6,30.12,NNW,348,11.0,13.0,28,0.00,,,0.00,Wunderground v.1.15,2013-04-09 18:13:00,
2013-04-09 11:14:00,68.0,32.7,30.12,North,4,10.0,13.0,27,0.00,,,0.00,Wunderground v.1.15,2013-04-09 18:14:00,
2013-04-09 11:15:00,68.0,32.7,30.12,NE,36,7.0,13.0,27,0.00,,,0.00,Wunderground v.1.15,2013-04-09 18:15:00,
2013-04-09 11:17:00,68.0,32.7,30.12,North,10,8.0,13.0,27,0.00,,,0.00,Wunderground v.1.15,2013-04-09 18:17:00,
2013-04-09 11:18:00,67.9,32.7,30.12,North,4,8.0,13.0,27,0.00,,,0.00,Wunderground v.1.15,2013-04-09 18:18:00,
2013-04-09 11:20:00,67.9,32.7,30.12,NNE,16,4.0,9.0,27,0.00,,,0.00,Wunderground v.1.15,2013-04-09 18:20:00,
2013-04-09 11:21:00,67.9,33.6,30.12,North,359,7.0,9.0,28,0.00,,,0.00,Wunderground v.1.15,2013-04-09 18:21:00,
2013-04-09 11:22:00,68.0,33.7,30.12,NNE,18,6.0,9.0,28,0.00,,,0.00,Wunderground v.1.15,2013-04-09 18:22:00,
2013-04-09 11:23:00,68.1,33.7,30.12,North,359,3.0,10.0,28,0.00,,,0.00,Wunderground v.1.15,2013-04-09 18:23:00,
2013-04-09 11:26:00,68.3,33.9,30.12,NNE,19,9.0,10.0,28,0.00,,,0.00,Wunderground v.1.15,2013-04-09 18:26:00,
2013-04-09 11:27:00,68.3,33.9,30.11,NNE,27,7.0,10.0,28,0.00,,,0.00,Wunderground v.1.15,2013-04-09 18:27:00,
2013-04-09 11:28:00,68.5,34.1,30.11,NNW,331,7.0,10.0,28,0.00,,,0.00,Wunderground v.1.15,2013-04-09 18:28:00,
2013-04-09 11:32:00,68.7,33.3,30.12,North,350,10.0,10.0,27,0.00,,,0.00,Wunderground v.1.15,2013-04-09 18:32:00,
2013-04-09 11:33:00,68.6,32.3,30.12,NNW,345,5.0,12.0,26,0.00,,,0.00,Wunderground v.1.15,2013-04-09 18:33:00,
2013-04-09 11:37:00,68.6,33.3,30.11,NE,55,8.0,12.0,27,0.00,,,0.00,Wunderground v.1.15,2013-04-09 18:37:00,
2013-04-09 11:38:00,68.8,33.4,30.11,North,4,3.0,12.0,27,0.00,,,0.00,Wunderground v.1.15,2013-04-09 18:38:00,
2013-04-09 11:42:00,69.4,33.0,30.12,North,4,8.0,12.0,26,0.00,,,0.00,Wunderground v.1.15,2013-04-09 18:42:00,
2013-04-09 11:43:00,69.4,33.0,30.12,North,354,7.0,12.0,26,0.00,,,0.00,Wunderground v.1.15,2013-04-09 18:43:00,
2013-04-09 11:45:00,69.2,31.9,30.12,NNE,26,8.0,12.0,25,0.00,,,0.00,Wunderground v.1.15,2013-04-09 18:45:00,
2013-04-09 11:48:00,69.3,33.9,30.12,NNE,14,10.0,12.0,27,0.00,,,0.00,Wunderground v.1.15,2013-04-09 18:48:00,
2013-04-09 11:50:00,69.5,33.1,30.12,North,359,5.0,7.0,26,0.00,,,0.00,Wunderground v.1.15,2013-04-09 18:50:00,
2013-04-09 11:53:00,69.7,33.3,30.11,North,354,6.0,16.0,26,0.00,,,0.00,Wunderground v.1.15,2013-04-09 18:53:00,
2013-04-09 11:54:00,69.6,33.2,30.12,North,4,8.0,16.0,26,0.00,,,0.00,Wunderground v.1.15,2013-04-09 18:54:00,
2013-04-09 11:55:00,69.6,33.2,30.12,NNW,347,10.0,16.0,26,0.00,,,0.00,Wunderground v.1.15,2013-04-09 18:55:00,
2013-04-09 11:58:00,69.5,33.1,30.11,NE,38,5.0,16.0,26,0.00,,,0.00,Wunderground v.1.15,2013-04-09 18:58:00,
2013-04-09 11:59:00,69.6,33.2,30.12,NNE,19,7.0,16.0,26,0.00,,,0.00,Wunderground v.1.15,2013-04-09 18:59:00,
2013-04-09 12:00:00,69.7,33.3,30.12,NNE,29,4.0,9.0,26,0.00,,,0.00,Wunderground v.1.15,2013-04-09 19:00:00,
2013-04-09 12:04:00,70.1,31.6,30.12,NNE,24,13.0,16.0,24,0.00,,,0.00,Wunderground v.1.15,2013-04-09 19:04:00,
2013-04-09 12:05:00,70.1,31.6,30.12,NNE,23,12.0,16.0,24,0.00,,,0.00,Wunderground v.1.15,2013-04-09 19:05:00,
2013-04-09 12:10:00,69.9,32.5,30.11,NNE,23,10.0,10.0,25,0.00,,,0.00,Wunderground v.1.15,2013-04-09 19:10:00,
2013-04-09 12:11:00,70.0,32.5,30.11,NNE,28,7.0,11.0,25,0.00,,,0.00,Wunderground v.1.15,2013-04-09 19:11:00,
2013-04-09 12:15:00,70.5,31.9,30.11,NNE,17,15.0,17.0,24,0.00,,,0.00,Wunderground v.1.15,2013-04-09 19:15:00,
2013-04-09 12:16:00,70.5,31.9,30.11,NNE,30,11.0,17.0,24,0.00,,,0.00,Wunderground v.1.15,2013-04-09 19:16:00,
2013-04-09 12:20:00,70.5,33.0,30.11,NNE,28,11.0,12.0,25,0.00,,,0.00,Wunderground v.1.15,2013-04-09 19:20:00,
2013-04-09 12:21:00,70.6,32.0,30.11,NE,43,6.0,12.0,24,0.00,,,0.00,Wunderground v.1.15,2013-04-09 19:21:00,
2013-04-09 12:22:00,70.6,32.0,30.11,NE,42,7.0,12.0,24,0.00,,,0.00,Wunderground v.1.15,2013-04-09 19:22:00,
2013-04-09 12:25:00,70.7,32.1,30.11,North,349,5.0,12.0,24,0.00,,,0.00,Wunderground v.1.15,2013-04-09 19:25:00,
2013-04-09 12:27:00,70.6,32.0,30.11,NNE,21,9.0,12.0,24,0.00,,,0.00,Wunderground v.1.15,2013-04-09 19:27:00,
2013-04-09 12:30:00,71.0,32.4,30.10,NNE,16,5.0,15.0,24,0.00,,,0.00,Wunderground v.1.15,2013-04-09 19:30:00,
2013-04-09 12:32:00,71.2,31.5,30.11,North,11,7.0,15.0,23,0.00,,,0.00,Wunderground v.1.15,2013-04-09 19:32:00,
2013-04-09 12:35:00,71.6,30.7,30.10,NNE,27,12.0,15.0,22,0.00,,,0.00,Wunderground v.1.15,2013-04-09 19:35:00,
2013-04-09 12:37:00,71.6,31.8,30.10,North,359,8.0,15.0,23,0.00,,,0.00,Wunderground v.1.15,2013-04-09 19:37:00,
2013-04-09 12:40:00,72.0,32.1,30.10,North,4,13.0,18.0,23,0.00,,,0.00,Wunderground v.1.15,2013-04-09 19:40:00,
2013-04-09 12:41:00,72.0,32.1,30.10,North,359,17.0,18.0,23,0.00,,,0.00,Wunderground v.1.15,2013-04-09 19:41:00,
2013-04-09 12:43:00,72.0,31.0,30.10,NNE,27,8.0,18.0,22,0.00,,,0.00,Wunderground v.1.15,2013-04-09 19:43:00,
2013-04-09 12:44:00,71.9,29.8,30.10,NE,39,9.0,18.0,21,0.00,,,0.00,Wunderground v.1.15,2013-04-09 19:44:00,
2013-04-09 12:46:00,71.9,31.0,30.10,North,4,10.0,18.0,22,0.00,,,0.00,Wunderground v.1.15,2013-04-09 19:46:00,
2013-04-09 12:48:00,72.0,31.0,30.10,NNE,14,5.0,18.0,22,0.00,,,0.00,Wunderground v.1.15,2013-04-09 19:48:00,
2013-04-09 12:49:00,72.2,31.2,30.10,North,354,8.0,18.0,22,0.00,,,0.00,Wunderground v.1.15,2013-04-09 19:49:00,
2013-04-09 12:51:00,72.3,31.3,30.10,NNE,20,14.0,15.0,22,0.00,,,0.00,Wunderground v.1.15,2013-04-09 19:51:00,
2013-04-09 12:53:00,72.1,31.1,30.10,North,4,7.0,15.0,22,0.00,,,0.00,Wunderground v.1.15,2013-04-09 19:53:00,
2013-04-09 12:55:00,72.3,30.1,30.09,NE,35,7.0,15.0,21,0.00,,,0.00,Wunderground v.1.15,2013-04-09 19:55:00,
2013-04-09 12:56:00,72.5,31.5,30.09,NNE,18,12.0,15.0,22,0.00,,,0.00,Wunderground v.1.15,2013-04-09 19:56:00,
2013-04-09 12:57:00,72.5,31.5,30.09,North,10,12.0,15.0,22,0.00,,,0.00,Wunderground v.1.15,2013-04-09 19:57:00,
2013-04-09 12:59:00,72.4,31.4,30.09,NNE,16,11.0,16.0,22,0.00,,,0.00,Wunderground v.1.15,2013-04-09 19:59:00,
2013-04-09 13:00:00,72.4,32.5,30.09,NNE,29,10.0,10.0,23,0.00,,,0.00,Wunderground v.1.15,2013-04-09 20:00:00,
2013-04-09 13:01:00,72.6,30.4,30.09,NE,36,7.0,13.0,21,0.00,,,0.00,Wunderground v.1.15,2013-04-09 20:01:00,
2013-04-09 13:03:00,72.8,29.4,30.09,NNE,12,5.0,13.0,20,0.00,,,0.00,Wunderground v.1.15,2013-04-09 20:03:00,
2013-04-09 13:04:00,72.9,29.4,30.09,NNE,12,8.0,13.0,20,0.00,,,0.00,Wunderground v.1.15,2013-04-09 20:04:00,
2013-04-09 13:05:00,72.8,29.4,30.09,North,11,9.0,13.0,20,0.00,,,0.00,Wunderground v.1.15,2013-04-09 20:05:00,
2013-04-09 13:06:00,72.8,30.6,30.09,NNW,347,11.0,13.0,21,0.00,,,0.00,Wunderground v.1.15,2013-04-09 20:06:00,
2013-04-09 13:08:00,73.1,32.0,30.09,NNE,29,7.0,13.0,22,0.00,,,0.00,Wunderground v.1.15,2013-04-09 20:08:00,
2013-04-09 13:09:00,73.5,32.3,30.09,North,4,6.0,13.0,22,0.00,,,0.00,Wunderground v.1.15,2013-04-09 20:09:00,
2013-04-09 13:10:00,73.8,32.6,30.09,NNE,28,11.0,11.0,22,0.00,,,0.00,Wunderground v.1.15,2013-04-09 20:10:00,
2013-04-09 13:12:00,73.8,31.4,30.09,NE,50,7.0,13.0,21,0.00,,,0.00,Wunderground v.1.15,2013-04-09 20:12:00,
2013-04-09 13:13:00,73.8,31.4,30.08,NNE,24,11.0,16.0,21,0.00,,,0.00,Wunderground v.1.15,2013-04-09 20:13:00,
2013-04-09 13:15:00,73.6,31.2,30.08,NNW,328,9.0,16.0,21,0.00,,,0.00,Wunderground v.1.15,2013-04-09 20:15:00,
2013-04-09 13:17:00,73.4,31.1,30.08,North,8,7.0,16.0,21,0.00,,,0.00,Wunderground v.1.15,2013-04-09 20:17:00,
2013-04-09 13:18:00,73.5,31.1,30.08,NNW,335,12.0,16.0,21,0.00,,,0.00,Wunderground v.1.15,2013-04-09 20:18:00,
2013-04-09 13:20:00,73.7,31.3,30.08,NW,324,15.0,17.0,21,0.00,,,0.00,Wunderground v.1.15,2013-04-09 20:20:00,
2013-04-09 13:22:00,73.4,31.1,30.08,NW,322,7.0,17.0,21,0.00,,,0.00,Wunderground v.1.15,2013-04-09 20:22:00,
2013-04-09 13:23:00,73.4,31.1,30.08,NNW,333,8.0,17.0,21,0.00,,,0.00,Wunderground v.1.15,2013-04-09 20:23:00,
2013-04-09 13:25:00,73.5,31.1,30.08,North,9,11.0,17.0,21,0.00,,,0.00,Wunderground v.1.15,2013-04-09 20:25:00,
2013-04-09 13:26:00,73.6,31.2,30.08,NNW,339,12.0,17.0,21,0.00,,,0.00,Wunderground v.1.15,2013-04-09 20:26:00,
2013-04-09 13:27:00,73.7,32.5,30.07,NW,321,14.0,28.0,22,0.00,,,0.00,Wunderground v.1.15,2013-04-09 20:27:00,
2013-04-09 13:30:00,73.9,30.3,30.08,NNE,22,11.0,12.0,20,0.00,,,0.00,Wunderground v.1.15,2013-04-09 20:30:00,
2013-04-09 13:31:00,74.2,30.5,30.08,NNW,341,11.0,13.0,20,0.00,,,0.00,Wunderground v.1.15,2013-04-09 20:31:00,
2013-04-09 13:32:00,74.6,28.3,30.08,North,359,14.0,16.0,18,0.00,,,0.00,Wunderground v.1.15,2013-04-09 20:32:00,
2013-04-09 13:33:00,74.5,26.8,30.08,NNE,17,13.0,16.0,17,0.00,,,0.00,Wunderground v.1.15,2013-04-09 20:33:00,
2013-04-09 13:35:00,73.9,27.7,30.08,NNE,12,14.0,16.0,18,0.00,,,0.00,Wunderground v.1.15,2013-04-09 20:35:00,
2013-04-09 13:37:00,74.0,29.1,30.08,North,354,10.0,16.0,19,0.00,,,0.00,Wunderground v.1.15,2013-04-09 20:37:00,
2013-04-09 13:38:00,74.2,30.5,30.08,North,4,10.0,16.0,20,0.00,,,0.00,Wunderground v.1.15,2013-04-09 20:38:00,
2013-04-09 13:42:00,74.2,27.9,30.08,NNW,336,14.0,15.0,18,0.00,,,0.00,Wunderground v.1.15,2013-04-09 20:42:00,
2013-04-09 13:43:00,74.0,29.1,30.08,NNW,337,7.0,16.0,19,0.00,,,0.00,Wunderground v.1.15,2013-04-09 20:43:00,
2013-04-09 13:44:00,73.9,26.3,30.08,NNW,346,6.0,16.0,17,0.00,,,0.00,Wunderground v.1.15,2013-04-09 20:44:00,
2013-04-09 13:47:00,74.0,29.1,30.08,NNE,20,14.0,18.0,19,0.00,,,0.00,Wunderground v.1.15,2013-04-09 20:47:00,
2013-04-09 13:48:00,74.2,29.3,30.08,North,359,20.0,20.0,19,0.00,,,0.00,Wunderground v.1.15,2013-04-09 20:48:00,
2013-04-09 13:50:00,73.9,27.7,30.08,NNE,29,21.0,21.0,18,0.00,,,0.00,Wunderground v.1.15,2013-04-09 20:50:00,
2013-04-09 13:52:00,73.8,26.2,30.07,North,354,13.0,21.0,17,0.00,,,0.00,Wunderground v.1.15,2013-04-09 20:52:00,
2013-04-09 13:53:00,73.8,27.6,30.07,NNE,23,16.0,21.0,18,0.00,,,0.00,Wunderground v.1.15,2013-04-09 20:53:00,
2013-04-09 13:55:00,74.0,29.1,30.07,NE,40,9.0,21.0,19,0.00,,,0.00,Wunderground v.1.15,2013-04-09 20:55:00,
2013-04-09 13:57:00,74.3,29.3,30.07,NNE,15,9.0,21.0,19,0.00,,,0.00,Wunderground v.1.15,2013-04-09 20:57:00,
2013-04-09 13:58:00,74.4,28.1,30.07,NNE,18,11.0,21.0,18,0.00,,,0.00,Wunderground v.1.15,2013-04-09 20:58:00,
2013-04-09 14:00:00,74.6,25.4,30.07,NNE,13,10.0,16.0,16,0.00,,,0.00,Wunderground v.1.15,2013-04-09 21:00:00,
2013-04-09 14:02:00,74.7,27.0,30.07,North,4,8.0,19.0,17,0.00,,,0.00,Wunderground v.1.15,2013-04-09 21:02:00,
2013-04-09 14:03:00,74.7,27.0,30.08,NNE,16,15.0,19.0,17,0.00,,,0.00,Wunderground v.1.15,2013-04-09 21:03:00,
2013-04-09 14:04:00,74.8,27.0,30.08,North,10,17.0,19.0,17,0.00,,,0.00,Wunderground v.1.15,2013-04-09 21:04:00,
2013-04-09 14:06:00,74.8,28.4,30.08,NNE,31,13.0,19.0,18,0.00,,,0.00,Wunderground v.1.15,2013-04-09 21:06:00,
2013-04-09 14:07:00,74.8,28.4,30.07,NNW,337,18.0,21.0,18,0.00,,,0.00,Wunderground v.1.15,2013-04-09 21:07:00,
2013-04-09 14:08:00,74.7,28.3,30.07,North,354,16.0,21.0,18,0.00,,,0.00,Wunderground v.1.15,2013-04-09 21:08:00,
2013-04-09 14:12:00,74.6,25.4,30.08,North,354,6.0,21.0,16,0.00,,,0.00,Wunderground v.1.15,2013-04-09 21:12:00,
2013-04-09 14:13:00,74.6,25.4,30.08,NNW,329,7.0,21.0,16,0.00,,,0.00,Wunderground v.1.15,2013-04-09 21:13:00,
2013-04-09 14:17:00,75.1,27.3,30.08,NNW,348,11.0,21.0,17,0.00,,,0.00,Wunderground v.1.15,2013-04-09 21:17:00,
2013-04-09 14:18:00,75.1,27.3,30.08,North,359,8.0,21.0,17,0.00,,,0.00,Wunderground v.1.15,2013-04-09 21:18:00,
2013-04-09 14:23:00,74.6,25.4,30.07,NW,322,11.0,18.0,16,0.00,,,0.00,Wunderground v.1.15,2013-04-09 21:23:00,
2013-04-09 14:25:00,74.6,26.9,30.07,NNE,29,15.0,19.0,17,0.00,,,0.00,Wunderground v.1.15,2013-04-09 21:25:00,
2013-04-09 14:28:00,74.9,25.6,30.07,North,11,14.0,24.0,16,0.00,,,0.00,Wunderground v.1.15,2013-04-09 21:28:00,
2013-04-09 14:30:00,75.0,25.7,30.07,NNW,344,12.0,19.0,16,0.00,,,0.00,Wunderground v.1.15,2013-04-09 21:30:00,
2013-04-09 14:33:00,75.5,26.1,30.07,NNW,329,10.0,20.0,16,0.00,,,0.00,Wunderground v.1.15,2013-04-09 21:33:00,
2013-04-09 14:36:00,75.4,26.1,30.07,NE,47,10.0,20.0,16,0.00,,,0.00,Wunderground v.1.15,2013-04-09 21:36:00,
2013-04-09 14:38:00,75.4,26.1,30.07,North,354,12.0,20.0,16,0.00,,,0.00,Wunderground v.1.15,2013-04-09 21:38:00,
2013-04-09 14:41:00,75.6,26.2,30.07,North,349,11.0,18.0,16,0.00,,,0.00,Wunderground v.1.15,2013-04-09 21:41:00,
2013-04-09 14:43:00,75.5,26.1,30.07,NNE,26,9.0,18.0,16,0.00,,,0.00,Wunderground v.1.15,2013-04-09 21:43:00,
2013-04-09 14:45:00,75.3,26.0,30.07,North,4,7.0,18.0,16,0.00,,,0.00,Wunderground v.1.15,2013-04-09 21:45:00,
2013-04-09 14:46:00,75.3,27.4,30.07,North,11,12.0,18.0,17,0.00,,,0.00,Wunderground v.1.15,2013-04-09 21:46:00,
2013-04-09 14:48:00,75.5,27.6,30.07,North,354,17.0,18.0,17,0.00,,,0.00,Wunderground v.1.15,2013-04-09 21:48:00,
2013-04-09 14:50:00,75.7,26.3,30.07,NNW,345,5.0,11.0,16,0.00,,,0.00,Wunderground v.1.15,2013-04-09 21:50:00,
2013-04-09 14:51:00,75.9,26.5,30.07,NNE,23,19.0,21.0,16,0.00,,,0.00,Wunderground v.1.15,2013-04-09 21:51:00,
2013-04-09 14:54:00,75.8,24.8,30.07,NNW,338,6.0,21.0,15,0.00,,,0.00,Wunderground v.1.15,2013-04-09 21:54:00,
2013-04-09 14:55:00,75.7,24.7,30.07,NW,323,10.0,21.0,15,0.00,,,0.00,Wunderground v.1.15,2013-04-09 21:55:00,
2013-04-09 14:57:00,75.8,24.8,30.07,North,354,16.0,21.0,15,0.00,,,0.00,Wunderground v.1.15,2013-04-09 21:57:00,
2013-04-09 15:00:00,75.7,24.7,30.07,NNW,330,12.0,13.0,15,0.00,,,0.00,Wunderground v.1.15,2013-04-09 22:00:00,
2013-04-09 15:02:00,75.8,27.8,30.07,NNE,14,15.0,15.0,17,0.00,,,0.00,Wunderground v.1.15,2013-04-09 22:02:00,
2013-04-09 15:05:00,76.0,26.5,30.07,NNE,20,19.0,19.0,16,0.00,,,0.00,Wunderground v.1.15,2013-04-09 22:05:00,
2013-04-09 15:07:00,75.7,26.3,30.07,North,359,9.0,20.0,16,0.00,,,0.00,Wunderground v.1.15,2013-04-09 22:07:00,
2013-04-09 15:10:00,76.2,26.7,30.07,NNW,347,15.0,15.0,16,0.00,,,0.00,Wunderground v.1.15,2013-04-09 22:10:00,
2013-04-09 15:11:00,76.3,26.8,30.07,NNW,341,10.0,16.0,16,0.00,,,0.00,Wunderground v.1.15,2013-04-09 22:11:00,
2013-04-09 15:12:00,76.4,26.9,30.07,North,4,16.0,17.0,16,0.00,,,0.00,Wunderground v.1.15,2013-04-09 22:12:00,
2013-04-09 15:15:00,76.2,26.7,30.07,NNW,345,9.0,17.0,16,0.00,,,0.00,Wunderground v.1.15,2013-04-09 22:15:00,
2013-04-09 15:16:00,76.2,25.1,30.07,NNW,334,13.0,17.0,15,0.00,,,0.00,Wunderground v.1.15,2013-04-09 22:16:00,
2013-04-09 15:18:00,75.9,27.9,30.06,North,4,8.0,17.0,17,0.00,,,0.00,Wunderground v.1.15,2013-04-09 22:18:00,
2013-04-09 15:20:00,76.0,26.5,30.07,NNW,343,8.0,11.0,16,0.00,,,0.00,Wunderground v.1.15,2013-04-09 22:20:00,
2013-04-09 15:21:00,76.0,26.5,30.06,NNW,347,8.0,11.0,16,0.00,,,0.00,Wunderground v.1.15,2013-04-09 22:21:00,
2013-04-09 15:23:00,76.5,26.9,30.07,NNW,339,11.0,14.0,16,0.00,,,0.00,Wunderground v.1.15,2013-04-09 22:23:00,
2013-04-09 15:25:00,76.7,27.1,30.07,North,4,9.0,14.0,16,0.00,,,0.00,Wunderground v.1.15,2013-04-09 22:25:00,
2013-04-09 15:26:00,77.0,27.3,30.07,NNE,28,8.0,14.0,16,0.00,,,0.00,Wunderground v.1.15,2013-04-09 22:26:00,
2013-04-09 15:27:00,77.1,28.9,30.07,NNW,329,8.0,14.0,17,0.00,,,0.00,Wunderground v.1.15,2013-04-09 22:27:00,
2013-04-09 15:28:00,77.3,26.0,30.07,NNW,339,10.0,14.0,15,0.00,,,0.00,Wunderground v.1.15,2013-04-09 22:28:00,
2013-04-09 15:30:00,77.2,27.5,30.06,NNE,25,7.0,14.0,16,0.00,,,0.00,Wunderground v.1.15,2013-04-09 22:30:00,
2013-04-09 15:32:00,77.1,25.9,30.07,NNE,33,11.0,20.0,15,0.00,,,0.00,Wunderground v.1.15,2013-04-09 22:32:00,
2013-04-09 15:33:00,77.0,24.1,30.06,North,4,12.0,20.0,14,0.00,,,0.00,Wunderground v.1.15,2013-04-09 22:33:00,
2013-04-09 15:35:00,76.9,25.7,30.07,North,354,12.0,20.0,15,0.00,,,0.00,Wunderground v.1.15,2013-04-09 22:35:00,
2013-04-09 15:37:00,76.7,23.9,30.06,North,4,12.0,20.0,14,0.00,,,0.00,Wunderground v.1.15,2013-04-09 22:37:00,
2013-04-09 15:38:00,76.7,25.5,30.06,North,354,9.0,20.0,15,0.00,,,0.00,Wunderground v.1.15,2013-04-09 22:38:00,
2013-04-09 15:39:00,76.7,25.5,30.06,North,354,5.0,20.0,15,0.00,,,0.00,Wunderground v.1.15,2013-04-09 22:39:00,
2013-04-09 15:41:00,76.7,25.5,30.06,North,354,7.0,11.0,15,0.00,,,0.00,Wunderground v.1.15,2013-04-09 22:41:00,
2013-04-09 15:43:00,76.9,24.0,30.06,NNW,336,11.0,18.0,14,0.00,,,0.00,Wunderground v.1.15,2013-04-09 22:43:00,
2013-04-09 15:45:00,77.0,24.1,30.06,North,4,11.0,18.0,14,0.00,,,0.00,Wunderground v.1.15,2013-04-09 22:45:00,
2013-04-09 15:46:00,77.0,24.1,30.06,North,359,9.0,18.0,14,0.00,,,0.00,Wunderground v.1.15,2013-04-09 22:46:00,
2013-04-09 15:48:00,77.0,24.1,30.06,NNW,343,14.0,21.0,14,0.00,,,0.00,Wunderground v.1.15,2013-04-09 22:48:00,
2013-04-09 15:50:00,76.9,24.0,30.06,North,4,12.0,17.0,14,0.00,,,0.00,Wunderground v.1.15,2013-04-09 22:50:00,
2013-04-09 15:52:00,76.8,24.0,30.06,NW,324,9.0,17.0,14,0.00,,,0.00,Wunderground v.1.15,2013-04-09 22:52:00,
2013-04-09 15:53:00,77.0,25.8,30.06,North,8,11.0,17.0,15,0.00,,,0.00,Wunderground v.1.15,2013-04-09 22:53:00,
2013-04-09 15:54:00,77.2,24.3,30.06,NNE,22,10.0,17.0,14,0.00,,,0.00,Wunderground v.1.15,2013-04-09 22:54:00,
2013-04-09 15:55:00,77.2,24.3,30.06,NNE,21,12.0,19.0,14,0.00,,,0.00,Wunderground v.1.15,2013-04-09 22:55:00,
2013-04-09 15:57:00,77.3,26.0,30.06,NNE,29,17.0,19.0,15,0.00,,,0.00,Wunderground v.1.15,2013-04-09 22:57:00,
2013-04-09 15:59:00,77.3,26.0,30.06,NNE,24,13.0,20.0,15,0.00,,,0.00,Wunderground v.1.15,2013-04-09 22:59:00,
2013-04-09 16:00:00,77.3,24.4,30.06,NNE,33,10.0,16.0,14,0.00,,,0.00,Wunderground v.1.15,2013-04-09 23:00:00,
2013-04-09 16:02:00,77.5,24.5,30.06,North,354,8.0,16.0,14,0.00,,,0.00,Wunderground v.1.15,2013-04-09 23:02:00,
2013-04-09 16:04:00,77.6,24.6,30.06,North,359,10.0,16.0,14,0.00,,,0.00,Wunderground v.1.15,2013-04-09 23:04:00,
2013-04-09 16:06:00,77.5,22.7,30.06,NNW,343,16.0,21.0,13,0.00,,,0.00,Wunderground v.1.15,2013-04-09 23:06:00,
2013-04-09 16:08:00,77.3,24.4,30.06,NNE,14,13.0,21.0,14,0.00,,,0.00,Wunderground v.1.15,2013-04-09 23:08:00,
2013-04-09 16:09:00,77.3,24.4,30.06,North,349,9.0,21.0,14,0.00,,,0.00,Wunderground v.1.15,2013-04-09 23:09:00,
2013-04-09 16:12:00,77.5,24.5,30.06,North,9,8.0,13.0,14,0.00,,,0.00,Wunderground v.1.15,2013-04-09 23:12:00,
2013-04-09 16:13:00,77.6,24.6,30.06,NNW,336,12.0,14.0,14,0.00,,,0.00,Wunderground v.1.15,2013-04-09 23:13:00,
2013-04-09 16:14:00,77.6,22.8,30.06,NNW,337,9.0,16.0,13,0.00,,,0.00,Wunderground v.1.15,2013-04-09 23:14:00,
2013-04-09 16:15:00,77.7,24.7,30.06,North,4,9.0,17.0,14,0.00,,,0.00,Wunderground v.1.15,2013-04-09 23:15:00,
2013-04-09 16:17:00,77.8,24.8,30.06,NNE,29,10.0,21.0,14,0.00,,,0.00,Wunderground v.1.15,2013-04-09 23:17:00,
2013-04-09 16:18:00,77.7,24.7,30.06,NNE,26,11.0,21.0,14,0.00,,,0.00,Wunderground v.1.15,2013-04-09 23:18:00,
2013-04-09 16:19:00,77.7,24.7,30.06,NNE,14,20.0,21.0,14,0.00,,,0.00,Wunderground v.1.15,2013-04-09 23:19:00,
2013-04-09 16:20:00,77.6,24.6,30.06,NNE,17,10.0,11.0,14,0.00,,,0.00,Wunderground v.1.15,2013-04-09 23:20:00,
2013-04-09 16:22:00,77.6,24.6,30.06,North,4,13.0,14.0,14,0.00,,,0.00,Wunderground v.1.15,2013-04-09 23:22:00,
2013-04-09 16:23:00,77.7,24.7,30.06,North,359,13.0,15.0,14,0.00,,,0.00,Wunderground v.1.15,2013-04-09 23:23:00,
2013-04-09 16:24:00,77.7,24.7,30.06,North,350,12.0,16.0,14,0.00,,,0.00,Wunderground v.1.15,2013-04-09 23:24:00,
2013-04-09 16:25:00,77.8,24.8,30.06,NNE,27,13.0,16.0,14,0.00,,,0.00,Wunderground v.1.15,2013-04-09 23:25:00,
2013-04-09 16:27:00,77.7,24.7,30.06,NNE,27,11.0,21.0,14,0.00,,,0.00,Wunderground v.1.15,2013-04-09 23:27:00,
2013-04-09 16:28:00,77.6,24.6,30.06,NNE,14,13.0,21.0,14,0.00,,,0.00,Wunderground v.1.15,2013-04-09 23:28:00,
2013-04-09 16:29:00,77.5,24.5,30.06,NNE,12,9.0,22.0,14,0.00,,,0.00,Wunderground v.1.15,2013-04-09 23:29:00,
2013-04-09 16:30:00,77.5,24.5,30.06,NNW,343,7.0,12.0,14,0.00,,,0.00,Wunderground v.1.15,2013-04-09 23:30:00,
2013-04-09 16:33:00,77.8,24.8,30.06,North,4,9.0,12.0,14,0.00,,,0.00,Wunderground v.1.15,2013-04-09 23:33:00,
2013-04-09 16:34:00,78.0,24.9,30.06,NNW,343,9.0,12.0,14,0.00,,,0.00,Wunderground v.1.15,2013-04-09 23:34:00,
2013-04-09 16:36:00,78.1,25.0,30.06,North,8,5.0,12.0,14,0.00,,,0.00,Wunderground v.1.15,2013-04-09 23:36:00,
2013-04-09 16:38:00,78.2,25.1,30.05,North,4,13.0,13.0,14,0.00,,,0.00,Wunderground v.1.15,2013-04-09 23:38:00,
2013-04-09 16:39:00,78.1,25.0,30.06,NE,50,9.0,13.0,14,0.00,,,0.00,Wunderground v.1.15,2013-04-09 23:39:00,
2013-04-09 16:41:00,78.0,24.9,30.05,North,354,9.0,14.0,14,0.00,,,0.00,Wunderground v.1.15,2013-04-09 23:41:00,
2013-04-09 16:43:00,77.9,24.8,30.05,ENE,57,11.0,14.0,14,0.00,,,0.00,Wunderground v.1.15,2013-04-09 23:43:00,
2013-04-09 16:44:00,77.9,26.5,30.05,NNE,18,8.0,14.0,15,0.00,,,0.00,Wunderground v.1.15,2013-04-09 23:44:00,
2013-04-09 16:46:00,78.0,26.6,30.05,NNE,30,7.0,14.0,15,0.00,,,0.00,Wunderground v.1.15,2013-04-09 23:46:00,
2013-04-09 16:49:00,77.9,26.5,30.05,NNE,19,11.0,14.0,15,0.00,,,0.00,Wunderground v.1.15,2013-04-09 23:49:00,
2013-04-09 16:50:00,77.9,26.5,30.05,NNE,24,10.0,12.0,15,0.00,,,0.00,Wunderground v.1.15,2013-04-09 23:50:00,
2013-04-09 16:51:00,77.8,26.4,30.05,NNE,32,6.0,14.0,15,0.00,,,0.00,Wunderground v.1.15,2013-04-09 23:51:00,
2013-04-09 16:54:00,77.7,26.3,30.05,NE,48,9.0,15.0,15,0.00,,,0.00,Wunderground v.1.15,2013-04-09 23:54:00,
2013-04-09 16:55:00,77.7,27.9,30.05,NE,39,11.0,15.0,16,0.00,,,0.00,Wunderground v.1.15,2013-04-09 23:55:00,
2013-04-09 16:56:00,77.8,26.4,30.05,NNE,31,15.0,18.0,15,0.00,,,0.00,Wunderground v.1.15,2013-04-09 23:56:00,
2013-04-09 16:59:00,77.6,26.3,30.05,NNE,13,10.0,18.0,15,0.00,,,0.00,Wunderground v.1.15,2013-04-09 23:59:00,
2013-04-09 17:00:00,77.7,26.3,30.05,NE,34,7.0,10.0,15,0.00,,,0.00,Wunderground v.1.15,2013-04-10 00:00:00,
2013-04-09 17:02:00,77.8,28.0,30.05,NNE,16,9.0,11.0,16,0.00,,,0.00,Wunderground v.1.15,2013-04-10 00:02:00,
2013-04-09 17:04:00,78.0,26.6,30.05,NNW,345,11.0,14.0,15,0.00,,,0.00,Wunderground v.1.15,2013-04-10 00:04:00,
2013-04-09 17:05:00,78.0,26.6,30.05,NNW,341,9.0,14.0,15,0.00,,,0.00,Wunderground v.1.15,2013-04-10 00:05:00,
2013-04-09 17:07:00,78.2,26.7,30.05,North,8,8.0,14.0,15,0.00,,,0.00,Wunderground v.1.15,2013-04-10 00:07:00,
2013-04-09 17:09:00,78.3,26.8,30.05,NNW,343,6.0,14.0,15,0.00,,,0.00,Wunderground v.1.15,2013-04-10 00:09:00,
2013-04-09 17:10:00,78.3,26.8,30.05,NNE,12,6.0,9.0,15,0.00,,,0.00,Wunderground v.1.15,2013-04-10 00:10:00,
2013-04-09 17:11:00,78.3,26.8,30.05,North,11,5.0,9.0,15,0.00,,,0.00,Wunderground v.1.15,2013-04-10 00:11:00,
2013-04-09 17:13:00,78.3,25.1,30.05,North,359,6.0,12.0,14,0.00,,,0.00,Wunderground v.1.15,2013-04-10 00:13:00,
2013-04-09 17:15:00,78.3,26.8,30.05,North,359,3.0,12.0,15,0.00,,,0.00,Wunderground v.1.15,2013-04-10 00:15:00,
2013-04-09 17:16:00,78.4,26.9,30.05,NNE,14,7.0,12.0,15,0.00,,,0.00,Wunderground v.1.15,2013-04-10 00:16:00,
2013-04-09 17:18:00,78.4,26.9,30.05,NNW,341,15.0,15.0,15,0.00,,,0.00,Wunderground v.1.15,2013-04-10 00:18:00,
2013-04-09 17:20:00,78.2,26.7,30.05,North,4,10.0,15.0,15,0.00,,,0.00,Wunderground v.1.15,2013-04-10 00:20:00,
2013-04-09 17:21:00,78.2,26.7,30.05,NNE,31,9.0,15.0,15,0.00,,,0.00,Wunderground v.1.15,2013-04-10 00:21:00,
2013-04-09 17:23:00,78.1,23.2,30.05,NNW,343,15.0,20.0,13,0.00,,,0.00,Wunderground v.1.15,2013-04-10 00:23:00,
2013-04-09 17:25:00,77.9,23.1,30.05,North,8,16.0,20.0,13,0.00,,,0.00,Wunderground v.1.15,2013-04-10 00:25:00,
2013-04-09 17:27:00,77.9,24.8,30.05,North,354,9.0,20.0,14,0.00,,,0.00,Wunderground v.1.15,2013-04-10 00:27:00,
2013-04-09 17:28:00,77.9,23.1,30.05,North,4,7.0,20.0,13,0.00,,,0.00,Wunderground v.1.15,2013-04-10 00:28:00,
2013-04-09 17:30:00,77.9,23.1,30.05,NNW,346,10.0,12.0,13,0.00,,,0.00,Wunderground v.1.15,2013-04-10 00:30:00,
2013-04-09 17:32:00,77.9,23.1,30.05,NNE,23,11.0,13.0,13,0.00,,,0.00,Wunderground v.1.15,2013-04-10 00:32:00,
2013-04-09 17:33:00,77.9,24.8,30.05,NNE,29,5.0,13.0,14,0.00,,,0.00,Wunderground v.1.15,2013-04-10 00:33:00,
2013-04-09 17:35:00,78.0,24.9,30.05,NNE,15,4.0,13.0,14,0.00,,,0.00,Wunderground v.1.15,2013-04-10 00:35:00,
2013-04-09 17:37:00,78.2,25.1,30.05,North,9,9.0,13.0,14,0.00,,,0.00,Wunderground v.1.15,2013-04-10 00:37:00,
2013-04-09 17:38:00,78.2,25.1,30.05,North,4,8.0,13.0,14,0.00,,,0.00,Wunderground v.1.15,2013-04-10 00:38:00,
2013-04-09 17:39:00,78.2,25.1,30.05,NNE,16,6.0,13.0,14,0.00,,,0.00,Wunderground v.1.15,2013-04-10 00:39:00,
2013-04-09 17:41:00,78.4,25.2,30.05,North,4,3.0,8.0,14,0.00,,,0.00,Wunderground v.1.15,2013-04-10 00:41:00,
2013-04-09 17:42:00,78.4,25.2,30.05,NNE,32,10.0,11.0,14,0.00,,,0.00,Wunderground v.1.15,2013-04-10 00:42:00,
2013-04-09 17:43:00,78.4,25.2,30.05,NNE,29,12.0,12.0,14,0.00,,,0.00,Wunderground v.1.15,2013-04-10 00:43:00,
2013-04-09 17:44:00,78.3,25.1,30.05,NNE,20,7.0,12.0,14,0.00,,,0.00,Wunderground v.1.15,2013-04-10 00:44:00,
2013-04-09 17:47:00,78.3,25.1,30.05,NNW,345,12.0,14.0,14,0.00,,,0.00,Wunderground v.1.15,2013-04-10 00:47:00,
2013-04-09 17:48:00,78.2,25.1,30.05,NNE,12,6.0,14.0,14,0.00,,,0.00,Wunderground v.1.15,2013-04-10 00:48:00,
2013-04-09 17:49:00,78.3,25.1,30.05,North,354,9.0,14.0,14,0.00,,,0.00,Wunderground v.1.15,2013-04-10 00:49:00,
2013-04-09 17:52:00,78.2,23.3,30.05,North,8,10.0,12.0,13,0.00,,,0.00,Wunderground v.1.15,2013-04-10 00:52:00,
2013-04-09 17:53:00,78.1,23.2,30.05,NNE,16,7.0,12.0,13,0.00,,,0.00,Wunderground v.1.15,2013-04-10 00:53:00,
2013-04-09 17:54:00,78.1,23.2,30.05,NNE,31,7.0,12.0,13,0.00,,,0.00,Wunderground v.1.15,2013-04-10 00:54:00,
2013-04-09 17:57:00,78.2,25.1,30.05,NNE,33,5.0,12.0,14,0.00,,,0.00,Wunderground v.1.15,2013-04-10 00:57:00,
2013-04-09 17:58:00,78.2,25.1,30.05,NNW,335,8.0,12.0,14,0.00,,,0.00,Wunderground v.1.15,2013-04-10 00:58:00,
2013-04-09 17:59:00,78.2,23.3,30.05,North,8,7.0,12.0,13,0.00,,,0.00,Wunderground v.1.15,2013-04-10 00:59:00,
2013-04-09 18:03:00,78.1,26.7,30.05,North,354,8.0,11.0,15,0.00,,,0.00,Wunderground v.1.15,2013-04-10 01:03:00,
2013-04-09 18:04:00,78.1,25.0,30.05,NNW,347,15.0,15.0,14,0.00,,,0.00,Wunderground v.1.15,2013-04-10 01:04:00,
2013-04-09 18:08:00,77.9,24.8,30.05,NNW,334,8.0,15.0,14,0.00,,,0.00,Wunderground v.1.15,2013-04-10 01:08:00,
2013-04-09 18:09:00,77.9,24.8,30.05,NW,325,10.0,15.0,14,0.00,,,0.00,Wunderground v.1.15,2013-04-10 01:09:00,
2013-04-09 18:13:00,78.0,24.9,30.06,North,11,7.0,11.0,14,0.00,,,0.00,Wunderground v.1.15,2013-04-10 01:13:00,
2013-04-09 18:14:00,78.0,26.6,30.06,North,359,7.0,11.0,15,0.00,,,0.00,Wunderground v.1.15,2013-04-10 01:14:00,
2013-04-09 18:15:00,78.1,25.0,30.06,North,359,8.0,11.0,14,0.00,,,0.00,Wunderground v.1.15,2013-04-10 01:15:00,
2013-04-09 18:18:00,78.0,26.6,30.06,North,359,4.0,12.0,15,0.00,,,0.00,Wunderground v.1.15,2013-04-10 01:18:00,
2013-04-09 18:19:00,78.0,26.6,30.06,NNE,21,6.0,12.0,15,0.00,,,0.00,Wunderground v.1.15,2013-04-10 01:19:00,
2013-04-09 18:20:00,78.0,26.6,30.06,NNE,25,4.0,8.0,15,0.00,,,0.00,Wunderground v.1.15,2013-04-10 01:20:00,
2013-04-09 18:23:00,78.0,26.6,30.05,NNE,23,7.0,8.0,15,0.00,,,0.00,Wunderground v.1.15,2013-04-10 01:23:00,
2013-04-09 18:24:00,77.9,26.5,30.05,NNE,21,5.0,13.0,15,0.00,,,0.00,Wunderground v.1.15,2013-04-10 01:24:00,
2013-04-09 18:25:00,77.9,26.5,30.05,NE,41,10.0,13.0,15,0.00,,,0.00,Wunderground v.1.15,2013-04-10 01:25:00,
2013-04-09 18:29:00,77.6,26.3,30.06,NNE,21,11.0,14.0,15,0.00,,,0.00,Wunderground v.1.15,2013-04-10 01:29:00,
2013-04-09 18:30:00,77.5,26.2,30.06,North,4,8.0,10.0,15,0.00,,,0.00,Wunderground v.1.15,2013-04-10 01:30:00,
2013-04-09 18:34:00,77.6,27.8,30.06,NNE,14,10.0,12.0,16,0.00,,,0.00,Wunderground v.1.15,2013-04-10 01:34:00,
2013-04-09 18:35:00,77.5,26.2,30.06,NNW,341,11.0,12.0,15,0.00,,,0.00,Wunderground v.1.15,2013-04-10 01:35:00,
2013-04-09 18:39:00,77.4,26.1,30.06,NNE,19,9.0,15.0,15,0.00,,,0.00,Wunderground v.1.15,2013-04-10 01:39:00,
2013-04-09 18:40:00,77.5,26.2,30.06,NNW,341,8.0,9.0,15,0.00,,,0.00,Wunderground v.1.15,2013-04-10 01:40:00,
2013-04-09 18:45:00,77.4,26.1,30.06,NNW,346,9.0,12.0,15,0.00,,,0.00,Wunderground v.1.15,2013-04-10 01:45:00,
2013-04-09 18:50:00,77.4,26.1,30.06,NNW,344,9.0,9.0,15,0.00,,,0.00,Wunderground v.1.15,2013-04-10 01:50:00,
2013-04-09 18:51:00,77.3,26.0,30.06,North,354,9.0,10.0,15,0.00,,,0.00,Wunderground v.1.15,2013-04-10 01:51:00,
2013-04-09 18:55:00,77.1,25.9,30.06,NNE,26,5.0,10.0,15,0.00,,,0.00,Wunderground v.1.15,2013-04-10 01:55:00,
2013-04-09 18:56:00,77.0,25.8,30.06,North,4,7.0,11.0,15,0.00,,,0.00,Wunderground v.1.15,2013-04-10 01:56:00,
2013-04-09 19:00:00,76.8,25.6,30.06,NNE,21,6.0,7.0,15,0.00,,,0.00,Wunderground v.1.15,2013-04-10 02:00:00,
2013-04-09 19:01:00,76.7,25.5,30.06,North,4,7.0,13.0,15,0.00,,,0.00,Wunderground v.1.15,2013-04-10 02:01:00,
2013-04-09 19:05:00,76.7,25.5,30.06,North,10,5.0,13.0,15,0.00,,,0.00,Wunderground v.1.15,2013-04-10 02:05:00,
2013-04-09 19:07:00,76.6,25.5,30.06,North,354,6.0,13.0,15,0.00,,,0.00,Wunderground v.1.15,2013-04-10 02:07:00,
2013-04-09 19:10:00,76.5,25.4,30.06,North,354,5.0,6.0,15,0.00,,,0.00,Wunderground v.1.15,2013-04-10 02:10:00,
2013-04-09 19:12:00,76.4,26.9,30.06,NNE,22,4.0,6.0,16,0.00,,,0.00,Wunderground v.1.15,2013-04-10 02:12:00,
2013-04-09 19:13:00,76.4,26.9,30.06,NNE,25,4.0,6.0,16,0.00,,,0.00,Wunderground v.1.15,2013-04-10 02:13:00,
2013-04-09 19:15:00,76.3,26.8,30.06,NNE,22,3.0,6.0,16,0.00,,,0.00,Wunderground v.1.15,2013-04-10 02:15:00,
2013-04-09 19:17:00,76.2,26.7,30.06,North,4,5.0,6.0,16,0.00,,,0.00,Wunderground v.1.15,2013-04-10 02:17:00,
2013-04-09 19:18:00,76.2,26.7,30.06,North,359,3.0,6.0,16,0.00,,,0.00,Wunderground v.1.15,2013-04-10 02:18:00,
2013-04-09 19:20:00,76.0,26.5,30.06,NNW,343,7.0,7.0,16,0.00,,,0.00,Wunderground v.1.15,2013-04-10 02:20:00,
2013-04-09 19:22:00,76.0,26.5,30.06,North,350,4.0,8.0,16,0.00,,,0.00,Wunderground v.1.15,2013-04-10 02:22:00,
2013-04-09 19:23:00,75.9,26.5,30.06,North,359,3.0,8.0,16,0.00,,,0.00,Wunderground v.1.15,2013-04-10 02:23:00,
2013-04-09 19:26:00,75.7,26.3,30.06,North,359,2.0,8.0,16,0.00,,,0.00,Wunderground v.1.15,2013-04-10 02:26:00,
2013-04-09 19:27:00,75.7,27.8,30.06,North,359,2.0,8.0,17,0.00,,,0.00,Wunderground v.1.15,2013-04-10 02:27:00,
2013-04-09 19:28:00,75.5,27.6,30.06,North,359,3.0,8.0,17,0.00,,,0.00,Wunderground v.1.15,2013-04-10 02:28:00,
2013-04-09 19:31:00,75.3,27.4,30.06,North,359,2.0,4.0,17,0.00,,,0.00,Wunderground v.1.15,2013-04-10 02:31:00,
2013-04-09 19:32:00,75.3,27.4,30.06,North,359,2.0,4.0,17,0.00,,,0.00,Wunderground v.1.15,2013-04-10 02:32:00,
2013-04-09 19:33:00,75.1,27.3,30.06,North,359,3.0,4.0,17,0.00,,,0.00,Wunderground v.1.15,2013-04-10 02:33:00,
2013-04-09 19:36:00,74.9,27.1,30.06,NNE,27,4.0,7.0,17,0.00,,,0.00,Wunderground v.1.15,2013-04-10 02:36:00,
2013-04-09 19:37:00,74.9,27.1,30.06,NNE,21,2.0,7.0,17,0.00,,,0.00,Wunderground v.1.15,2013-04-10 02:37:00,
2013-04-09 19:38:00,74.9,28.5,30.07,NNE,21,0.0,7.0,18,0.00,,,0.00,Wunderground v.1.15,2013-04-10 02:38:00,
2013-04-09 19:42:00,74.6,28.3,30.07,NNE,21,0.0,3.0,18,0.00,,,0.00,Wunderground v.1.15,2013-04-10 02:42:00,
2013-04-09 19:44:00,74.6,28.3,30.07,NNW,328,5.0,5.0,18,0.00,,,0.00,Wunderground v.1.15,2013-04-10 02:44:00,
2013-04-09 19:47:00,72.9,42.1,30.07,WNW,295,1.0,5.0,33,0.00,,,0.00,Wunderground v.1.15,2013-04-10 02:47:00,
2013-04-09 19:48:00,72.6,41.8,30.07,WNW,295,1.0,5.0,33,0.00,,,0.00,Wunderground v.1.15,2013-04-10 02:48:00,
2013-04-09 19:49:00,72.1,43.7,30.07,WNW,295,2.0,5.0,36,0.00,,,0.00,Wunderground v.1.15,2013-04-10 02:49:00,
2013-04-09 19:53:00,70.5,46.3,30.07,West,281,4.0,5.0,42,0.00,,,0.00,Wunderground v.1.15,2013-04-10 02:53:00,
2013-04-09 19:54:00,69.8,46.3,30.07,West,280,3.0,5.0,43,0.00,,,0.00,Wunderground v.1.15,2013-04-10 02:54:00,
2013-04-09 19:58:00,69.0,46.8,30.07,West,276,0.0,5.0,45,0.00,,,0.00,Wunderground v.1.15,2013-04-10 02:58:00,
2013-04-09 20:00:00,68.7,47.1,30.07,West,276,0.0,3.0,46,0.00,,,0.00,Wunderground v.1.15,2013-04-10 03:00:00,
2013-04-09 20:03:00,68.3,47.3,30.07,West,276,0.0,3.0,47,0.00,,,0.00,Wunderground v.1.15,2013-04-10 03:03:00,
2013-04-09 20:05:00,68.0,47.0,30.08,West,276,1.0,3.0,47,0.00,,,0.00,Wunderground v.1.15,2013-04-10 03:05:00,
2013-04-09 20:08:00,67.7,47.3,30.08,West,276,2.0,3.0,48,0.00,,,0.00,Wunderground v.1.15,2013-04-10 03:08:00,
2013-04-09 20:09:00,67.6,47.2,30.08,West,276,2.0,3.0,48,0.00,,,0.00,Wunderground v.1.15,2013-04-10 03:09:00,
2013-04-09 20:10:00,67.5,47.1,30.08,West,276,2.0,2.0,48,0.00,,,0.00,Wunderground v.1.15,2013-04-10 03:10:00,
2013-04-09 20:13:00,67.4,47.6,30.08,West,276,1.0,4.0,49,0.00,,,0.00,Wunderground v.1.15,2013-04-10 03:13:00,
2013-04-09 20:14:00,67.4,47.6,30.08,West,276,0.0,4.0,49,0.00,,,0.00,Wunderground v.1.15,2013-04-10 03:14:00,
2013-04-09 20:15:00,67.3,48.0,30.08,West,276,0.0,4.0,50,0.00,,,0.00,Wunderground v.1.15,2013-04-10 03:15:00,
2013-04-09 20:18:00,67.0,47.2,30.08,West,276,0.0,4.0,49,0.00,,,0.00,Wunderground v.1.15,2013-04-10 03:18:00,
2013-04-09 20:19:00,67.0,47.2,30.08,West,276,0.0,4.0,49,0.00,,,0.00,Wunderground v.1.15,2013-04-10 03:19:00,
2013-04-09 20:20:00,66.9,47.6,30.08,West,276,0.0,1.0,50,0.00,,,0.00,Wunderground v.1.15,2013-04-10 03:20:00,
2013-04-09 20:23:00,66.7,47.5,30.08,West,276,0.0,1.0,50,0.00,,,0.00,Wunderground v.1.15,2013-04-10 03:23:00,
2013-04-09 20:24:00,66.7,47.5,30.08,West,276,0.0,1.0,50,0.00,,,0.00,Wunderground v.1.15,2013-04-10 03:24:00,
2013-04-09 20:25:00,66.6,47.4,30.08,West,276,0.0,1.0,50,0.00,,,0.00,Wunderground v.1.15,2013-04-10 03:25:00,
2013-04-09 20:28:00,66.5,47.3,30.08,West,276,0.0,1.0,50,0.00,,,0.00,Wunderground v.1.15,2013-04-10 03:28:00,
2013-04-09 20:29:00,66.5,47.3,30.08,West,276,0.0,1.0,50,0.00,,,0.00,Wunderground v.1.15,2013-04-10 03:29:00,
2013-04-09 20:30:00,66.4,47.7,30.08,West,276,0.0,0.0,51,0.00,,,0.00,Wunderground v.1.15,2013-04-10 03:30:00,
2013-04-09 20:33:00,66.3,47.1,30.08,West,276,0.0,0.0,50,0.00,,,0.00,Wunderground v.1.15,2013-04-10 03:33:00,
2013-04-09 20:34:00,66.3,47.1,30.08,West,276,0.0,0.0,50,0.00,,,0.00,Wunderground v.1.15,2013-04-10 03:34:00,
2013-04-09 20:35:00,66.2,47.0,30.09,West,276,0.0,0.0,50,0.00,,,0.00,Wunderground v.1.15,2013-04-10 03:35:00,
2013-04-09 20:38:00,66.1,45.8,30.08,West,276,0.0,0.0,48,0.00,,,0.00,Wunderground v.1.15,2013-04-10 03:38:00,
2013-04-09 20:39:00,66.0,45.7,30.08,West,276,0.0,0.0,48,0.00,,,0.00,Wunderground v.1.15,2013-04-10 03:39:00,
2013-04-09 20:40:00,66.0,45.7,30.08,West,276,0.0,0.0,48,0.00,,,0.00,Wunderground v.1.15,2013-04-10 03:40:00,
2013-04-09 20:43:00,66.0,44.6,30.08,West,276,0.0,0.0,46,0.00,,,0.00,Wunderground v.1.15,2013-04-10 03:43:00,
2013-04-09 20:44:00,65.9,44.5,30.08,West,276,0.0,0.0,46,0.00,,,0.00,Wunderground v.1.15,2013-04-10 03:44:00,
2013-04-09 20:45:00,66.0,44.6,30.09,West,276,0.0,0.0,46,0.00,,,0.00,Wunderground v.1.15,2013-04-10 03:45:00,
2013-04-09 20:46:00,66.0,44.6,30.08,West,276,0.0,0.0,46,0.00,,,0.00,Wunderground v.1.15,2013-04-10 03:46:00,
2013-04-09 20:49:00,66.1,42.9,30.09,West,276,0.0,0.0,43,0.00,,,0.00,Wunderground v.1.15,2013-04-10 03:49:00,
2013-04-09 20:50:00,66.2,43.0,30.09,West,276,0.0,0.0,43,0.00,,,0.00,Wunderground v.1.15,2013-04-10 03:50:00,
2013-04-09 20:51:00,66.2,42.4,30.09,West,276,1.0,1.0,42,0.00,,,0.00,Wunderground v.1.15,2013-04-10 03:51:00,
2013-04-09 20:54:00,66.6,42.2,30.09,West,276,0.0,2.0,41,0.00,,,0.00,Wunderground v.1.15,2013-04-10 03:54:00,
2013-04-09 20:55:00,66.8,43.0,30.09,West,276,1.0,2.0,42,0.00,,,0.00,Wunderground v.1.15,2013-04-10 03:55:00,
2013-04-09 20:56:00,66.8,43.0,30.09,West,276,0.0,2.0,42,0.00,,,0.00,Wunderground v.1.15,2013-04-10 03:56:00,
2013-04-09 20:59:00,67.1,44.4,30.08,West,276,0.0,2.0,44,0.00,,,0.00,Wunderground v.1.15,2013-04-10 03:59:00,
2013-04-09 21:00:00,67.0,44.4,30.09,West,276,1.0,1.0,44,0.00,,,0.00,Wunderground v.1.15,2013-04-10 04:00:00,
2013-04-09 21:05:00,67.0,44.9,30.09,West,276,0.0,4.0,45,0.00,,,0.00,Wunderground v.1.15,2013-04-10 04:05:00,
2013-04-09 21:10:00,66.7,45.3,30.09,West,276,1.0,2.0,46,0.00,,,0.00,Wunderground v.1.15,2013-04-10 04:10:00,
2013-04-09 21:11:00,66.7,45.3,30.09,West,276,1.0,4.0,46,0.00,,,0.00,Wunderground v.1.15,2013-04-10 04:11:00,
2013-04-09 21:15:00,66.7,45.3,30.09,West,280,2.0,4.0,46,0.00,,,0.00,Wunderground v.1.15,2013-04-10 04:15:00,
2013-04-09 21:17:00,66.8,45.3,30.09,West,280,1.0,4.0,46,0.00,,,0.00,Wunderground v.1.15,2013-04-10 04:17:00,
2013-04-09 21:20:00,66.5,45.1,30.10,West,280,1.0,3.0,46,0.00,,,0.00,Wunderground v.1.15,2013-04-10 04:20:00,
2013-04-09 21:21:00,66.5,45.1,30.10,West,281,1.0,3.0,46,0.00,,,0.00,Wunderground v.1.15,2013-04-10 04:21:00,
2013-04-09 21:22:00,66.3,44.9,30.09,West,281,2.0,3.0,46,0.00,,,0.00,Wunderground v.1.15,2013-04-10 04:22:00,
2013-04-09 21:25:00,65.9,44.5,30.09,West,280,4.0,4.0,46,0.00,,,0.00,Wunderground v.1.15,2013-04-10 04:25:00,
2013-04-09 21:26:00,65.9,44.5,30.09,West,281,2.0,4.0,46,0.00,,,0.00,Wunderground v.1.15,2013-04-10 04:26:00,
2013-04-09 21:27:00,65.9,44.5,30.10,West,280,1.0,4.0,46,0.00,,,0.00,Wunderground v.1.15,2013-04-10 04:27:00,
2013-04-09 21:28:00,65.9,44.5,30.10,West,281,2.0,4.0,46,0.00,,,0.00,Wunderground v.1.15,2013-04-10 04:28:00,
2013-04-09 21:31:00,65.9,43.9,30.10,West,281,0.0,2.0,45,0.00,,,0.00,Wunderground v.1.15,2013-04-10 04:31:00,
2013-04-09 21:32:00,65.8,43.9,30.10,West,280,0.0,2.0,45,0.00,,,0.00,Wunderground v.1.15,2013-04-10 04:32:00,
2013-04-09 21:33:00,65.8,43.9,30.10,West,281,0.0,2.0,45,0.00,,,0.00,Wunderground v.1.15,2013-04-10 04:33:00,
2013-04-09 21:36:00,65.7,43.8,30.10,West,280,0.0,2.0,45,0.00,,,0.00,Wunderground v.1.15,2013-04-10 04:36:00,
2013-04-09 21:38:00,65.5,43.6,30.10,West,280,0.0,2.0,45,0.00,,,0.00,Wunderground v.1.15,2013-04-10 04:38:00,
2013-04-09 21:41:00,65.2,43.9,30.10,West,280,0.0,0.0,46,0.00,,,0.00,Wunderground v.1.15,2013-04-10 04:41:00,
2013-04-09 21:43:00,64.9,44.2,30.10,West,280,0.0,0.0,47,0.00,,,0.00,Wunderground v.1.15,2013-04-10 04:43:00,
2013-04-09 21:47:00,64.3,44.2,30.10,West,281,1.0,2.0,48,0.00,,,0.00,Wunderground v.1.15,2013-04-10 04:47:00,
2013-04-09 21:48:00,64.3,44.7,30.10,West,280,0.0,2.0,49,0.00,,,0.00,Wunderground v.1.15,2013-04-10 04:48:00,
2013-04-09 21:52:00,64.7,45.6,30.10,West,280,2.0,3.0,50,0.00,,,0.00,Wunderground v.1.15,2013-04-10 04:52:00,
2013-04-09 21:53:00,64.9,45.8,30.10,West,280,3.0,4.0,50,0.00,,,0.00,Wunderground v.1.15,2013-04-10 04:53:00,
2013-04-09 21:54:00,64.9,45.8,30.10,West,280,2.0,4.0,50,0.00,,,0.00,Wunderground v.1.15,2013-04-10 04:54:00,
2013-04-09 21:57:00,65.4,45.7,30.10,West,280,3.0,4.0,49,0.00,,,0.00,Wunderground v.1.15,2013-04-10 04:57:00,
2013-04-09 21:59:00,65.4,45.7,30.10,West,280,2.0,4.0,49,0.00,,,0.00,Wunderground v.1.15,2013-04-10 04:59:00,
2013-04-09 22:00:00,65.4,45.7,30.11,West,280,3.0,4.0,49,0.00,,,0.00,Wunderground v.1.15,2013-04-10 05:00:00,
2013-04-09 22:02:00,65.5,45.8,30.11,West,278,5.0,5.0,49,0.00,,,0.00,Wunderground v.1.15,2013-04-10 05:02:00,
2013-04-09 22:03:00,65.5,45.8,30.11,West,278,4.0,5.0,49,0.00,,,0.00,Wunderground v.1.15,2013-04-10 05:03:00,
2013-04-09 22:04:00,65.4,46.3,30.11,West,278,5.0,5.0,50,0.00,,,0.00,Wunderground v.1.15,2013-04-10 05:04:00,
2013-04-09 22:05:00,65.2,46.1,30.10,West,275,4.0,5.0,50,0.00,,,0.00,Wunderground v.1.15,2013-04-10 05:05:00,
2013-04-09 22:07:00,64.9,45.8,30.11,West,275,3.0,5.0,50,0.00,,,0.00,Wunderground v.1.15,2013-04-10 05:07:00,
2013-04-09 22:08:00,64.8,45.7,30.11,West,276,3.0,5.0,50,0.00,,,0.00,Wunderground v.1.15,2013-04-10 05:08:00,
2013-04-09 22:09:00,64.7,46.1,30.11,West,275,1.0,5.0,51,0.00,,,0.00,Wunderground v.1.15,2013-04-10 05:09:00,
2013-04-09 22:10:00,64.5,46.0,30.10,West,275,1.0,3.0,51,0.00,,,0.00,Wunderground v.1.15,2013-04-10 05:10:00,
2013-04-09 22:13:00,64.2,45.7,30.10,West,276,2.0,4.0,51,0.00,,,0.00,Wunderground v.1.15,2013-04-10 05:13:00,
2013-04-09 22:14:00,64.1,45.6,30.10,West,276,5.0,5.0,51,0.00,,,0.00,Wunderground v.1.15,2013-04-10 05:14:00,
2013-04-09 22:15:00,64.1,45.6,30.10,West,276,3.0,5.0,51,0.00,,,0.00,Wunderground v.1.15,2013-04-10 05:15:00,
2013-04-09 22:18:00,64.2,45.7,30.11,West,276,3.0,5.0,51,0.00,,,0.00,Wunderground v.1.15,2013-04-10 05:18:00,
2013-04-09 22:19:00,64.3,45.8,30.10,West,276,5.0,6.0,51,0.00,,,0.00,Wunderground v.1.15,2013-04-10 05:19:00,
2013-04-09 22:20:00,64.3,45.8,30.11,West,276,4.0,4.0,51,0.00,,,0.00,Wunderground v.1.15,2013-04-10 05:20:00,
2013-04-09 22:23:00,64.5,46.0,30.11,West,276,2.0,4.0,51,0.00,,,0.00,Wunderground v.1.15,2013-04-10 05:23:00,
2013-04-09 22:24:00,64.5,45.4,30.11,West,276,3.0,4.0,50,0.00,,,0.00,Wunderground v.1.15,2013-04-10 05:24:00,
2013-04-09 22:25:00,64.5,45.4,30.11,West,276,2.0,4.0,50,0.00,,,0.00,Wunderground v.1.15,2013-04-10 05:25:00,
2013-04-09 22:28:00,64.4,45.3,30.11,West,276,0.0,4.0,50,0.00,,,0.00,Wunderground v.1.15,2013-04-10 05:28:00,
2013-04-09 22:29:00,64.4,45.9,30.11,West,276,0.0,4.0,51,0.00,,,0.00,Wunderground v.1.15,2013-04-10 05:29:00,
2013-04-09 22:32:00,64.4,45.3,30.11,West,276,0.0,2.0,50,0.00,,,0.00,Wunderground v.1.15,2013-04-10 05:32:00,
2013-04-09 22:34:00,64.4,45.9,30.11,West,276,1.0,2.0,51,0.00,,,0.00,Wunderground v.1.15,2013-04-10 05:34:00,
2013-04-09 22:37:00,64.1,46.1,30.11,West,276,0.0,2.0,52,0.00,,,0.00,Wunderground v.1.15,2013-04-10 05:37:00,
2013-04-09 22:39:00,63.9,45.9,30.11,West,275,1.0,2.0,52,0.00,,,0.00,Wunderground v.1.15,2013-04-10 05:39:00,
2013-04-09 22:42:00,63.6,45.6,30.11,West,275,0.0,2.0,52,0.00,,,0.00,Wunderground v.1.15,2013-04-10 05:42:00,
2013-04-09 22:44:00,63.5,45.6,30.11,West,275,0.0,2.0,52,0.00,,,0.00,Wunderground v.1.15,2013-04-10 05:44:00,
2013-04-09 22:47:00,63.2,45.8,30.11,West,275,0.0,2.0,53,0.00,,,0.00,Wunderground v.1.15,2013-04-10 05:47:00,
2013-04-09 22:49:00,63.0,46.1,30.11,West,276,0.0,2.0,54,0.00,,,0.00,Wunderground v.1.15,2013-04-10 05:49:00,
2013-04-09 22:50:00,62.9,46.0,30.11,West,275,0.0,0.0,54,0.00,,,0.00,Wunderground v.1.15,2013-04-10 05:50:00,
2013-04-09 22:52:00,62.5,46.1,30.11,West,276,1.0,1.0,55,0.00,,,0.00,Wunderground v.1.15,2013-04-10 05:52:00,
2013-04-09 22:54:00,62.1,45.7,30.11,West,276,2.0,3.0,55,0.00,,,0.00,Wunderground v.1.15,2013-04-10 05:54:00,
2013-04-09 22:55:00,62.0,45.6,30.11,West,275,2.0,3.0,55,0.00,,,0.00,Wunderground v.1.15,2013-04-10 05:55:00,
2013-04-09 22:57:00,62.1,45.7,30.11,West,275,0.0,3.0,55,0.00,,,0.00,Wunderground v.1.15,2013-04-10 05:57:00,
2013-04-09 22:59:00,62.2,45.8,30.11,West,276,3.0,3.0,55,0.00,,,0.00,Wunderground v.1.15,2013-04-10 05:59:00,
2013-04-09 23:00:00,62.3,45.9,30.11,West,276,4.0,4.0,55,0.00,,,0.00,Wunderground v.1.15,2013-04-10 06:00:00,
2013-04-09 23:02:00,62.9,45.5,30.11,West,275,3.0,4.0,53,0.00,,,0.00,Wunderground v.1.15,2013-04-10 06:02:00,
2013-04-09 23:05:00,63.3,45.4,30.11,West,276,3.0,4.0,52,0.00,,,0.00,Wunderground v.1.15,2013-04-10 06:05:00,
2013-04-09 23:08:00,63.5,45.0,30.11,West,275,5.0,5.0,51,0.00,,,0.00,Wunderground v.1.15,2013-04-10 06:08:00,
2013-04-09 23:10:00,63.9,45.4,30.11,West,274,4.0,5.0,51,0.00,,,0.00,Wunderground v.1.15,2013-04-10 06:10:00,
2013-04-09 23:11:00,64.1,45.1,30.11,West,278,4.0,5.0,50,0.00,,,0.00,Wunderground v.1.15,2013-04-10 06:11:00,
2013-04-09 23:13:00,64.3,45.3,30.11,West,281,5.0,5.0,50,0.00,,,0.00,Wunderground v.1.15,2013-04-10 06:13:00,
2013-04-09 23:15:00,64.3,45.3,30.11,West,281,3.0,5.0,50,0.00,,,0.00,Wunderground v.1.15,2013-04-10 06:15:00,
2013-04-09 23:16:00,64.3,45.3,30.11,West,281,3.0,5.0,50,0.00,,,0.00,Wunderground v.1.15,2013-04-10 06:16:00,
2013-04-09 23:18:00,64.3,44.7,30.11,West,281,2.0,5.0,49,0.00,,,0.00,Wunderground v.1.15,2013-04-10 06:18:00,
2013-04-09 23:20:00,64.4,44.8,30.11,West,281,1.0,3.0,49,0.00,,,0.00,Wunderground v.1.15,2013-04-10 06:20:00,
2013-04-09 23:21:00,64.4,44.8,30.11,West,281,2.0,3.0,49,0.00,,,0.00,Wunderground v.1.15,2013-04-10 06:21:00,
2013-04-09 23:22:00,64.4,44.8,30.11,West,281,1.0,3.0,49,0.00,,,0.00,Wunderground v.1.15,2013-04-10 06:22:00,
2013-04-09 23:23:00,64.4,44.8,30.11,West,281,1.0,3.0,49,0.00,,,0.00,Wunderground v.1.15,2013-04-10 06:23:00,
2013-04-09 23:25:00,64.4,44.8,30.11,West,281,1.0,3.0,49,0.00,,,0.00,Wunderground v.1.15,2013-04-10 06:25:00,
2013-04-09 23:27:00,64.5,44.4,30.11,West,281,3.0,3.0,48,0.00,,,0.00,Wunderground v.1.15,2013-04-10 06:27:00,
2013-04-09 23:28:00,64.5,44.4,30.11,West,281,4.0,4.0,48,0.00,,,0.00,Wunderground v.1.15,2013-04-10 06:28:00,
2013-04-09 23:30:00,64.9,44.2,30.11,WNW,289,3.0,4.0,47,0.00,,,0.00,Wunderground v.1.15,2013-04-10 06:30:00,
2013-04-09 23:32:00,65.1,43.8,30.11,WNW,289,3.0,4.0,46,0.00,,,0.00,Wunderground v.1.15,2013-04-10 06:32:00,
2013-04-09 23:33:00,65.3,44.0,30.11,WNW,289,1.0,4.0,46,0.00,,,0.00,Wunderground v.1.15,2013-04-10 06:33:00,
2013-04-09 23:35:00,65.6,44.3,30.11,WNW,289,0.0,4.0,46,0.00,,,0.00,Wunderground v.1.15,2013-04-10 06:35:00,
2013-04-09 23:37:00,65.5,44.2,30.11,WNW,289,0.0,4.0,46,0.00,,,0.00,Wunderground v.1.15,2013-04-10 06:37:00,
2013-04-09 23:38:00,65.5,44.2,30.11,WNW,289,0.0,4.0,46,0.00,,,0.00,Wunderground v.1.15,2013-04-10 06:38:00,
2013-04-09 23:39:00,65.5,44.2,30.11,WNW,289,0.0,4.0,46,0.00,,,0.00,Wunderground v.1.15,2013-04-10 06:39:00,
2013-04-09 23:40:00,65.4,44.1,30.11,WNW,289,0.0,1.0,46,0.00,,,0.00,Wunderground v.1.15,2013-04-10 06:40:00,
2013-04-09 23:43:00,65.2,44.5,30.11,WNW,289,0.0,1.0,47,0.00,,,0.00,Wunderground v.1.15,2013-04-10 06:43:00,
2013-04-09 23:44:00,65.1,44.4,30.11,WNW,289,0.0,1.0,47,0.00,,,0.00,Wunderground v.1.15,2013-04-10 06:44:00,
2013-04-09 23:46:00,64.8,44.6,30.11,WNW,289,0.0,2.0,48,0.00,,,0.00,Wunderground v.1.15,2013-04-10 06:46:00,
2013-04-09 23:48:00,64.5,43.3,30.11,WNW,289,0.0,2.0,46,0.00,,,0.00,Wunderground v.1.15,2013-04-10 06:48:00,
2013-04-09 23:49:00,64.4,43.2,30.11,WNW,289,0.0,0.0,46,0.00,,,0.00,Wunderground v.1.15,2013-04-10 06:49:00,
2013-04-09 23:52:00,64.5,42.7,30.11,WNW,289,0.0,1.0,45,0.00,,,0.00,Wunderground v.1.15,2013-04-10 06:52:00,
2013-04-09 23:53:00,64.7,42.3,30.11,WNW,289,0.0,1.0,44,0.00,,,0.00,Wunderground v.1.15,2013-04-10 06:53:00,
2013-04-09 23:54:00,64.7,42.3,30.11,WNW,289,0.0,1.0,44,0.00,,,0.00,Wunderground v.1.15,2013-04-10 06:54:00,
2013-04-09 23:55:00,64.9,41.2,30.11,WNW,289,2.0,2.0,42,0.00,,,0.00,Wunderground v.1.15,2013-04-10 06:55:00,
2013-04-09 23:57:00,65.6,40.0,30.11,WNW,289,3.0,4.0,39,0.00,,,0.00,Wunderground v.1.15,2013-04-10 06:57:00,
2013-04-09 23:58:00,66.5,40.1,30.11,WNW,289,3.0,4.0,38,0.00,,,0.00,Wunderground v.1.15,2013-04-10 06:58:00,
2013-04-09 23:59:00,67.0,39.9,30.11,WNW,289,2.0,4.0,37,0.00,,,0.00,Wunderground v.1.15,2013-04-10 06:59:00,